| time (UTC) | temp C | wind direction | speed KPH | gust KPH | rain 1hr cm | rain 24hr cm | rain mn cm | humidity % | barometer mb |
| 20260906052804 | 25 | 70 | 1.6 | 3.2 | 0.00 | 0.00 | 0.00 | 71 | 1012.7 |
| 20260906052604 | 25 | 71 | 1.6 | 4.8 | 0.00 | 0.00 | 0.00 | 71 | 1012.7 |
| 20260906052404 | 25 | 70 | 1.6 | 4.8 | 0.00 | 0.00 | 0.00 | 71 | 1012.7 |
| 20260906052203 | 25 | 70 | 1.6 | 6.4 | 0.00 | 0.00 | 0.00 | 71 | 1012.7 |
| 20260906052003 | 25 | 70 | 1.6 | 6.4 | 0.00 | 0.00 | 0.00 | 71 | 1012.7 |
| 20260906051803 | 25 | 71 | 1.6 | 6.4 | 0.00 | 0.00 | 0.00 | 72 | 1012.7 |
| 20260906051603 | 25 | 71 | 3.2 | 6.4 | 0.00 | 0.00 | 0.00 | 71 | 1012.7 |
| 20260906051404 | 25 | 70 | 3.2 | 6.4 | 0.00 | 0.00 | 0.00 | 72 | 1012.7 |
| 20260906051204 | 25 | 70 | 3.2 | 6.4 | 0.00 | 0.00 | 0.00 | 72 | 1012.5 |
| 20260906051004 | 25 | 71 | 3.2 | 6.4 | 0.00 | 0.00 | 0.00 | 71 | 1012.5 |
| 20260906050803 | 25 | 71 | 1.6 | 6.4 | 0.00 | 0.00 | 0.00 | 72 | 1012.5 |
| 20260906050603 | 25 | 71 | 1.6 | 6.4 | 0.00 | 0.00 | 0.00 | 72 | 1012.5 |
| 20260906050403 | 25 | 71 | 1.6 | 4.8 | 0.00 | 0.00 | 0.00 | 72 | 1012.5 |
| 20260906050203 | 25 | 72 | 0.0 | 4.8 | 0.00 | 0.00 | 0.00 | 72 | 1012.5 |
| 20260906050003 | 25 | 72 | 1.6 | 3.2 | 0.00 | 0.00 | 0.00 | 72 | 1012.5 |
| 20260906045804 | 25 | 72 | 1.6 | 3.2 | 0.00 | 0.00 | 0.00 | 72 | 1012.7 |
| 20260906045604 | 25 | 72 | 1.6 | 3.2 | 0.00 | 0.00 | 0.00 | 72 | 1012.7 |
| 20260906045404 | 25 | 72 | 1.6 | 3.2 | 0.00 | 0.00 | 0.00 | 72 | 1012.7 |
| 20260906045203 | 25 | 72 | 1.6 | 3.2 | 0.00 | 0.00 | 0.00 | 72 | 1012.7 |
| 20260906045003 | 25 | 72 | 1.6 | 3.2 | 0.00 | 0.00 | 0.00 | 72 | 1012.7 |
| 20260906044803 | 25 | 73 | 1.6 | 3.2 | 0.00 | 0.00 | 0.00 | 72 | 1012.7 |
| 20260906044603 | 25 | 73 | 0.0 | 3.2 | 0.00 | 0.00 | 0.00 | 73 | 1012.7 |
| 20260906044404 | 25 | 0 | 0.0 | 0.0 | 0.00 | 0.00 | 0.00 | 72 | 1012.7 |
| 20260906044204 | 25 | 0 | 0.0 | 0.0 | 0.00 | 0.00 | 0.00 | 73 | 1013.4 |
| 20260906044004 | 25 | 0 | 0.0 | 0.0 | 0.00 | 0.00 | 0.00 | 73 | 1013.4 |
| 20260906043803 | 25 | 0 | 0.0 | 0.0 | 0.00 | 0.00 | 0.00 | 73 | 1013.4 |
| 20260906043603 | 25 | 0 | 0.0 | 0.0 | 0.00 | 0.00 | 0.00 | 73 | 1013.4 |
| 20260906043403 | 24 | 0 | 0.0 | 0.0 | 0.00 | 0.00 | 0.00 | 73 | 1013.4 |
| 20260906043203 | 24 | 0 | 0.0 | 0.0 | 0.00 | 0.00 | 0.00 | 73 | 1013.3 |
| 20260906043004 | 24 | 0 | 0.0 | 0.0 | 0.00 | 0.00 | 0.00 | 73 | 1013.3 |
| 20260906042804 | 24 | 0 | 0.0 | 0.0 | 0.00 | 0.00 | 0.00 | 73 | 1013.3 |
| 20260906042604 | 24 | 0 | 0.0 | 0.0 | 0.00 | 0.00 | 0.00 | 74 | 1013.3 |
| 20260906042403 | 24 | 0 | 0.0 | 0.0 | 0.00 | 0.00 | 0.00 | 74 | 1013.3 |
| 20260906042203 | 24 | 0 | 0.0 | 0.0 | 0.00 | 0.00 | 0.00 | 74 | 1013.3 |
| 20260906042003 | 24 | 0 | 0.0 | 0.0 | 0.00 | 0.00 | 0.00 | 74 | 1013.3 |
| 20260906041803 | 24 | 0 | 0.0 | 0.0 | 0.00 | 0.00 | 0.00 | 74 | 1013.3 |
| 20260906041604 | 24 | 0 | 0.0 | 0.0 | 0.00 | 0.00 | 0.00 | 75 | 1013.3 |
| 20260906041404 | 24 | 0 | 0.0 | 0.0 | 0.00 | 0.00 | 0.00 | 75 | 1013.3 |
| 20260906041203 | 24 | 0 | 0.0 | 0.0 | 0.00 | 0.00 | 0.00 | 75 | 1013.3 |
| 20260906041003 | 24 | 0 | 0.0 | 0.0 | 0.00 | 0.00 | 0.00 | 75 | 1013.3 |
| 20260906040803 | 24 | 0 | 0.0 | 0.0 | 0.00 | 0.00 | 0.00 | 75 | 1013.3 |
| 20260906040603 | 24 | 0 | 0.0 | 0.0 | 0.00 | 0.00 | 0.00 | 75 | 1013.3 |
| 20260906040404 | 24 | 0 | 0.0 | 0.0 | 0.00 | 0.00 | 0.00 | 75 | 1013.3 |
| 20260906040204 | 24 | 0 | 0.0 | 0.0 | 0.00 | 0.00 | 0.00 | 74 | 1013.3 |
| 20260906040004 | 24 | 0 | 0.0 | 0.0 | 0.00 | 0.00 | 0.00 | 74 | 1013.3 |
| 20260906035803 | 24 | 0 | 0.0 | 0.0 | 0.00 | 0.00 | 0.00 | 74 | 1013.2 |
| 20260906035603 | 24 | 0 | 0.0 | 0.0 | 0.00 | 0.00 | 0.00 | 74 | 1013.2 |
| 20260906035403 | 24 | 0 | 0.0 | 0.0 | 0.00 | 0.00 | 0.00 | 74 | 1013.2 |
| 20260906035204 | 24 | 0 | 0.0 | 0.0 | 0.00 | 0.00 | 0.00 | 73 | 1013.2 |
| 20260906035004 | 24 | 0 | 0.0 | 0.0 | 0.00 | 0.00 | 0.00 | 73 | 1013.2 |
| 20260906034804 | 24 | 0 | 0.0 | 0.0 | 0.00 | 0.00 | 0.00 | 73 | 1013.2 |
| 20260906034603 | 24 | 0 | 0.0 | 0.0 | 0.00 | 0.00 | 0.00 | 73 | 1013.2 |
| 20260906034403 | 24 | 0 | 0.0 | 0.0 | 0.00 | 0.00 | 0.00 | 73 | 1013.3 |
| 20260906034203 | 24 | 0 | 0.0 | 0.0 | 0.00 | 0.00 | 0.00 | 72 | 1013.3 |
| 20260906034003 | 25 | 0 | 0.0 | 0.0 | 0.00 | 0.00 | 0.00 | 72 | 1013.3 |
| 20260906033804 | 25 | 0 | 0.0 | 0.0 | 0.00 | 0.00 | 0.00 | 72 | 1013.3 |
| 20260906033604 | 25 | 0 | 0.0 | 0.0 | 0.00 | 0.00 | 0.00 | 72 | 1013.3 |
| 20260906033404 | 25 | 0 | 0.0 | 0.0 | 0.00 | 0.00 | 0.00 | 72 | 1013.3 |
| 20260906033203 | 25 | 0 | 0.0 | 0.0 | 0.00 | 0.00 | 0.00 | 72 | 1013.3 |
| 20260906033003 | 25 | 0 | 0.0 | 0.0 | 0.00 | 0.00 | 0.00 | 72 | 1013.3 |
| 20260906032803 | 25 | 0 | 0.0 | 0.0 | 0.00 | 0.00 | 0.00 | 72 | 1013.3 |
| 20260906032603 | 25 | 0 | 0.0 | 0.0 | 0.00 | 0.00 | 0.00 | 71 | 1013.3 |
| 20260906032404 | 25 | 0 | 0.0 | 0.0 | 0.00 | 0.00 | 0.00 | 71 | 1013.3 |
| 20260906032204 | 25 | 0 | 0.0 | 0.0 | 0.00 | 0.00 | 0.00 | 71 | 1013.3 |
| 20260906032003 | 25 | 0 | 0.0 | 0.0 | 0.00 | 0.00 | 0.00 | 72 | 1013.3 |
| 20260906031803 | 25 | 0 | 0.0 | 0.0 | 0.00 | 0.00 | 0.00 | 71 | 1013.3 |
| 20260906031603 | 25 | 0 | 0.0 | 0.0 | 0.00 | 0.00 | 0.00 | 71 | 1013.3 |
| 20260906031403 | 25 | 0 | 0.0 | 0.0 | 0.00 | 0.00 | 0.00 | 71 | 1013.3 |
| 20260906031204 | 25 | 0 | 0.0 | 0.0 | 0.00 | 0.00 | 0.00 | 71 | 1013.4 |
| 20260906031004 | 25 | 0 | 0.0 | 0.0 | 0.00 | 0.00 | 0.00 | 71 | 1013.4 |
| 20260906030804 | 25 | 0 | 0.0 | 0.0 | 0.00 | 0.00 | 0.00 | 71 | 1013.4 |
| 20260906030603 | 24 | 0 | 0.0 | 0.0 | 0.00 | 0.00 | 0.00 | 72 | 1013.4 |
| 20260906030403 | 24 | 0 | 0.0 | 0.0 | 0.00 | 0.00 | 0.00 | 72 | 1013.3 |
| 20260906030203 | 24 | 0 | 0.0 | 0.0 | 0.00 | 0.00 | 0.00 | 72 | 1013.3 |
| 20260906030004 | 24 | 0 | 0.0 | 0.0 | 0.00 | 0.00 | 0.00 | 72 | 1013.3 |
| 20260906025804 | 24 | 0 | 0.0 | 0.0 | 0.00 | 0.00 | 0.00 | 73 | 1013.2 |
| 20260906025604 | 24 | 0 | 0.0 | 0.0 | 0.00 | 0.00 | 0.00 | 74 | 1013.2 |
| 20260906025403 | 24 | 0 | 0.0 | 0.0 | 0.00 | 0.00 | 0.00 | 74 | 1013.3 |
| 20260906025203 | 24 | 0 | 0.0 | 0.0 | 0.00 | 0.00 | 0.00 | 75 | 1013.3 |
| 20260906025003 | 24 | 0 | 0.0 | 0.0 | 0.00 | 0.00 | 0.00 | 76 | 1013.3 |
| 20260906024803 | 24 | 0 | 0.0 | 0.0 | 0.00 | 0.00 | 0.00 | 75 | 1013.2 |
| 20260906024603 | 24 | 0 | 0.0 | 0.0 | 0.00 | 0.00 | 0.00 | 76 | 1013.3 |
| 20260906024403 | 24 | 0 | 0.0 | 0.0 | 0.00 | 0.00 | 0.00 | 76 | 1013.3 |
| 20260906024203 | 24 | 0 | 0.0 | 0.0 | 0.00 | 0.00 | 0.00 | 76 | 1012.8 |
| 20260906024004 | 24 | 0 | 0.0 | 0.0 | 0.00 | 0.00 | 0.00 | 76 | 1012.8 |
| 20260906023804 | 24 | 0 | 0.0 | 0.0 | 0.00 | 0.00 | 0.00 | 75 | 1012.8 |
| 20260906023604 | 24 | 0 | 0.0 | 0.0 | 0.00 | 0.00 | 0.00 | 75 | 1012.7 |
| 20260906023403 | 24 | 0 | 0.0 | 0.0 | 0.00 | 0.00 | 0.00 | 75 | 1012.7 |
| 20260906023203 | 24 | 0 | 0.0 | 0.0 | 0.00 | 0.00 | 0.00 | 74 | 1012.7 |
| 20260906023003 | 24 | 0 | 0.0 | 0.0 | 0.00 | 0.00 | 0.00 | 74 | 1012.7 |
| 20260906022804 | 24 | 0 | 0.0 | 0.0 | 0.00 | 0.00 | 0.00 | 75 | 1012.5 |
| 20260906022604 | 24 | 0 | 0.0 | 0.0 | 0.00 | 0.00 | 0.00 | 75 | 1012.5 |
| 20260906022404 | 24 | 0 | 0.0 | 0.0 | 0.00 | 0.00 | 0.00 | 75 | 1012.5 |
| 20260906022203 | 24 | 0 | 0.0 | 0.0 | 0.00 | 0.00 | 0.00 | 75 | 1012.5 |
| 20260906022003 | 24 | 0 | 0.0 | 0.0 | 0.00 | 0.00 | 0.00 | 75 | 1012.5 |
| 20260906021803 | 24 | 0 | 0.0 | 0.0 | 0.00 | 0.00 | 0.00 | 75 | 1012.5 |
| 20260906021603 | 24 | 0 | 0.0 | 0.0 | 0.00 | 0.00 | 0.00 | 75 | 1012.5 |
| 20260906021404 | 24 | 0 | 0.0 | 0.0 | 0.00 | 0.00 | 0.00 | 75 | 1012.5 |
| 20260906021204 | 24 | 0 | 0.0 | 0.0 | 0.00 | 0.00 | 0.00 | 76 | 1012.6 |
| 20260906021004 | 24 | 0 | 0.0 | 0.0 | 0.00 | 0.00 | 0.00 | 75 | 1012.6 |
| 20260906020803 | 24 | 0 | 0.0 | 0.0 | 0.00 | 0.00 | 0.00 | 74 | 1012.6 |
| 20260906020603 | 24 | 0 | 0.0 | 0.0 | 0.00 | 0.00 | 0.00 | 75 | 1012.6 |
| 20260906020403 | 24 | 0 | 0.0 | 0.0 | 0.00 | 0.00 | 0.00 | 75 | 1012.6 |
| 20260906020203 | 24 | 0 | 0.0 | 0.0 | 0.00 | 0.00 | 0.00 | 76 | 1012.6 |
| 20260906020004 | 24 | 0 | 0.0 | 0.0 | 0.00 | 0.00 | 0.00 | 76 | 1012.6 |
| 20260906015804 | 24 | 0 | 0.0 | 0.0 | 0.00 | 0.00 | 0.00 | 76 | 1012.3 |
| 20260906015604 | 24 | 0 | 0.0 | 0.0 | 0.00 | 0.00 | 0.00 | 76 | 1012.3 |
| 20260906015403 | 24 | 0 | 0.0 | 0.0 | 0.00 | 0.00 | 0.00 | 75 | 1012.3 |
| 20260906015203 | 24 | 0 | 0.0 | 0.0 | 0.00 | 0.00 | 0.00 | 75 | 1012.3 |
| 20260906015004 | 24 | 0 | 0.0 | 0.0 | 0.00 | 0.00 | 0.00 | 74 | 1012.3 |
| 20260906014803 | 24 | 0 | 0.0 | 0.0 | 0.00 | 0.00 | 0.00 | 74 | 1012.3 |
| 20260906014604 | 24 | 0 | 0.0 | 0.0 | 0.00 | 0.00 | 0.00 | 74 | 1012.3 |
| 20260906014404 | 24 | 0 | 0.0 | 0.0 | 0.00 | 0.00 | 0.00 | 75 | 1012.3 |
| 20260906014204 | 24 | 0 | 0.0 | 0.0 | 0.00 | 0.00 | 0.00 | 75 | 1012.3 |
| 20260906014003 | 24 | 0 | 0.0 | 0.0 | 0.00 | 0.00 | 0.00 | 75 | 1012.3 |
| 20260906013803 | 24 | 0 | 0.0 | 0.0 | 0.00 | 0.00 | 0.00 | 75 | 1012.3 |
| 20260906013603 | 24 | 0 | 0.0 | 0.0 | 0.00 | 0.00 | 0.00 | 74 | 1012.3 |
| 20260906013403 | 24 | 0 | 0.0 | 0.0 | 0.00 | 0.00 | 0.00 | 75 | 1012.3 |
| 20260906013204 | 24 | 0 | 0.0 | 0.0 | 0.00 | 0.00 | 0.00 | 75 | 1012.3 |
| 20260906013004 | 24 | 0 | 0.0 | 0.0 | 0.00 | 0.00 | 0.00 | 75 | 1012.3 |
| 20260906012803 | 24 | 0 | 0.0 | 0.0 | 0.00 | 0.00 | 0.00 | 75 | 1012.1 |
| 20260906012603 | 24 | 0 | 0.0 | 0.0 | 0.00 | 0.00 | 0.00 | 77 | 1012.1 |
| 20260906012403 | 24 | 0 | 0.0 | 0.0 | 0.00 | 0.00 | 0.00 | 77 | 1012.1 |
| 20260906012203 | 24 | 0 | 0.0 | 0.0 | 0.00 | 0.00 | 0.00 | 77 | 1012.1 |
| 20260906012003 | 24 | 0 | 0.0 | 0.0 | 0.00 | 0.00 | 0.00 | 77 | 1012.1 |
| 20260906011803 | 24 | 0 | 0.0 | 0.0 | 0.00 | 0.00 | 0.00 | 78 | 1012.1 |
| 20260906011603 | 24 | 0 | 0.0 | 0.0 | 0.00 | 0.00 | 0.00 | 77 | 1012.1 |
| 20260906011404 | 24 | 0 | 0.0 | 0.0 | 0.00 | 0.00 | 0.00 | 77 | 1012.1 |
| 20260906011204 | 24 | 0 | 0.0 | 0.0 | 0.00 | 0.00 | 0.00 | 77 | 1012.0 |
| 20260906011004 | 24 | 0 | 0.0 | 0.0 | 0.00 | 0.00 | 0.00 | 77 | 1012.1 |
| 20260906010803 | 24 | 0 | 0.0 | 0.0 | 0.00 | 0.00 | 0.00 | 76 | 1012.0 |
| 20260906010603 | 24 | 0 | 0.0 | 0.0 | 0.00 | 0.00 | 0.00 | 76 | 1012.1 |
| 20260906010403 | 25 | 0 | 0.0 | 0.0 | 0.00 | 0.00 | 0.00 | 76 | 1012.2 |
| 20260906010203 | 25 | 0 | 0.0 | 0.0 | 0.00 | 0.00 | 0.00 | 76 | 1012.2 |
| 20260906010004 | 25 | 0 | 0.0 | 0.0 | 0.00 | 0.00 | 0.00 | 75 | 1012.2 |
| 20260906005804 | 25 | 358 | 0.0 | 1.6 | 0.00 | 0.00 | 0.00 | 75 | 1012.3 |
| 20260906005604 | 25 | 358 | 0.0 | 1.6 | 0.00 | 0.00 | 0.00 | 75 | 1012.3 |
| 20260906005403 | 25 | 358 | 0.0 | 1.6 | 0.00 | 0.00 | 0.00 | 74 | 1012.2 |
| 20260906005203 | 25 | 358 | 0.0 | 1.6 | 0.00 | 0.00 | 0.00 | 72 | 1012.2 |
| 20260906005003 | 25 | 358 | 0.0 | 1.6 | 0.00 | 0.00 | 0.00 | 72 | 1012.2 |
| 20260906004803 | 25 | 0 | 0.0 | 0.0 | 0.00 | 0.00 | 0.00 | 70 | 1012.2 |
| 20260906004604 | 25 | 0 | 0.0 | 0.0 | 0.00 | 0.00 | 0.00 | 69 | 1012.2 |
| 20260906004404 | 25 | 0 | 0.0 | 0.0 | 0.00 | 0.00 | 0.00 | 69 | 1012.2 |
| 20260906004204 | 25 | 0 | 0.0 | 0.0 | 0.00 | 0.00 | 0.00 | 69 | 1012.2 |
| 20260906004003 | 25 | 0 | 0.0 | 0.0 | 0.00 | 0.00 | 0.00 | 68 | 1012.3 |
| 20260906003803 | 25 | 0 | 0.0 | 0.0 | 0.00 | 0.00 | 0.00 | 69 | 1012.3 |
| 20260906003603 | 26 | 0 | 0.0 | 0.0 | 0.00 | 0.00 | 0.00 | 68 | 1012.3 |
| 20260906003403 | 26 | 0 | 0.0 | 0.0 | 0.00 | 0.00 | 0.00 | 68 | 1012.3 |
| 20260906003204 | 26 | 0 | 0.0 | 0.0 | 0.00 | 0.00 | 0.00 | 67 | 1012.3 |
| 20260906003004 | 26 | 0 | 0.0 | 0.0 | 0.00 | 0.00 | 0.00 | 67 | 1012.4 |
| 20260906002804 | 26 | 0 | 0.0 | 0.0 | 0.00 | 0.00 | 0.00 | 68 | 1012.1 |
| 20260906002603 | 26 | 0 | 0.0 | 0.0 | 0.00 | 0.00 | 0.00 | 67 | 1012.0 |
| 20260906002403 | 26 | 0 | 0.0 | 0.0 | 0.00 | 0.00 | 0.00 | 67 | 1012.1 |
| 20260906002203 | 26 | 0 | 0.0 | 0.0 | 0.00 | 0.00 | 0.00 | 68 | 1012.1 |
| 20260906002004 | 26 | 0 | 0.0 | 0.0 | 0.00 | 0.00 | 0.00 | 68 | 1012.1 |
| 20260906001804 | 26 | 0 | 0.0 | 0.0 | 0.00 | 0.00 | 0.00 | 68 | 1012.2 |
| 20260906001604 | 26 | 54 | 0.0 | 3.2 | 0.00 | 0.00 | 0.00 | 67 | 1012.2 |
| 20260906001403 | 26 | 54 | 0.0 | 3.2 | 0.00 | 0.00 | 0.00 | 68 | 1012.2 |
| 20260906001203 | 26 | 54 | 0.0 | 6.4 | 0.00 | 0.00 | 0.00 | 68 | 1012.2 |
| 20260906001003 | 26 | 54 | 1.6 | 8.0 | 0.00 | 0.00 | 0.00 | 67 | 1012.2 |
| 20260906000803 | 26 | 53 | 3.2 | 8.0 | 0.00 | 0.00 | 0.00 | 66 | 1012.2 |
| 20260906000603 | 26 | 52 | 3.2 | 8.0 | 0.00 | 0.00 | 0.00 | 65 | 1012.2 |
| 20260906000404 | 26 | 52 | 4.8 | 9.7 | 0.00 | 0.00 | 0.00 | 66 | 1012.2 |
| 20260906000204 | 26 | 52 | 6.4 | 9.7 | 0.00 | 0.00 | 0.00 | 66 | 1012.2 |
| 20260906000003 | 26 | 52 | 6.4 | 9.7 | 0.00 | 0.00 | 0.00 | 66 | 1012.2 |
| 20260905235803 | 26 | 53 | 6.4 | 9.7 | 0.00 | 0.00 | 0.00 | 65 | 1012.2 |
| 20260905235603 | 26 | 55 | 8.0 | 11.3 | 0.00 | 0.00 | 0.00 | 66 | 1012.2 |
| 20260905235403 | 26 | 57 | 8.0 | 11.3 | 0.00 | 0.00 | 0.00 | 66 | 1012.2 |
| 20260905235203 | 26 | 59 | 6.4 | 11.3 | 0.00 | 0.00 | 0.00 | 68 | 1012.2 |
| 20260905235004 | 26 | 60 | 6.4 | 11.3 | 0.00 | 0.00 | 0.00 | 69 | 1012.3 |
| 20260905234804 | 26 | 58 | 6.4 | 11.3 | 0.00 | 0.00 | 0.00 | 69 | 1012.2 |
| 20260905234604 | 26 | 57 | 6.4 | 11.3 | 0.00 | 0.00 | 0.00 | 69 | 1012.1 |
| 20260905234403 | 26 | 55 | 6.4 | 8.0 | 0.00 | 0.00 | 0.00 | 71 | 1012.2 |
| 20260905234203 | 26 | 56 | 6.4 | 8.0 | 0.00 | 0.00 | 0.00 | 73 | 1012.8 |
| 20260905234003 | 26 | 57 | 4.8 | 8.0 | 0.00 | 0.00 | 0.00 | 75 | 1012.8 |
| 20260905233803 | 26 | 60 | 3.2 | 8.0 | 0.00 | 0.00 | 0.00 | 74 | 1012.8 |
| 20260905233604 | 26 | 67 | 1.6 | 8.0 | 0.00 | 0.00 | 0.00 | 74 | 1012.8 |
| 20260905233404 | 26 | 77 | 1.6 | 8.0 | 0.00 | 0.00 | 0.00 | 74 | 1012.8 |
| 20260905233203 | 26 | 102 | 0.0 | 3.2 | 0.00 | 0.00 | 0.00 | 74 | 1012.8 |
| 20260905233003 | 26 | 102 | 0.0 | 3.2 | 0.00 | 0.00 | 0.00 | 73 | 1012.8 |
| 20260905232803 | 26 | 102 | 0.0 | 3.2 | 0.00 | 0.00 | 0.00 | 73 | 1012.0 |
| 20260905232603 | 26 | 102 | 0.0 | 1.6 | 0.00 | 0.00 | 0.00 | 73 | 1012.1 |
| 20260905232403 | 26 | 0 | 0.0 | 0.0 | 0.00 | 0.00 | 0.00 | 74 | 1012.1 |
| 20260905232204 | 26 | 0 | 0.0 | 0.0 | 0.00 | 0.00 | 0.00 | 74 | 1012.1 |
| 20260905232004 | 26 | 0 | 0.0 | 0.0 | 0.00 | 0.00 | 0.00 | 74 | 1012.1 |
| 20260905231804 | 26 | 0 | 0.0 | 0.0 | 0.00 | 0.00 | 0.00 | 74 | 1012.1 |
| 20260905231603 | 26 | 0 | 0.0 | 0.0 | 0.00 | 0.00 | 0.00 | 74 | 1012.1 |
| 20260905231403 | 26 | 0 | 0.0 | 0.0 | 0.00 | 0.00 | 0.00 | 74 | 1012.1 |
| 20260905231203 | 26 | 0 | 0.0 | 0.0 | 0.00 | 0.00 | 0.00 | 73 | 1012.2 |
| 20260905231003 | 26 | 0 | 0.0 | 0.0 | 0.00 | 0.00 | 0.00 | 73 | 1012.2 |
| 20260905230804 | 26 | 0 | 0.0 | 0.0 | 0.00 | 0.00 | 0.00 | 72 | 1012.2 |
| 20260905230604 | 26 | 0 | 0.0 | 0.0 | 0.00 | 0.00 | 0.00 | 72 | 1012.2 |
| 20260905230404 | 26 | 166 | 0.0 | 1.6 | 0.00 | 0.00 | 0.00 | 73 | 1012.2 |
| 20260905230203 | 26 | 166 | 0.0 | 1.6 | 0.00 | 0.00 | 0.00 | 72 | 1012.2 |
| 20260905230003 | 26 | 166 | 0.0 | 1.6 | 0.00 | 0.00 | 0.00 | 72 | 1012.2 |
| 20260905225803 | 26 | 166 | 0.0 | 1.6 | 0.00 | 0.00 | 0.00 | 72 | 1011.7 |
| 20260905225604 | 27 | 166 | 0.0 | 1.6 | 0.00 | 0.00 | 0.00 | 72 | 1011.7 |
| 20260905225404 | 27 | 166 | 0.0 | 6.4 | 0.00 | 0.00 | 0.00 | 72 | 1011.7 |
| 20260905225204 | 27 | 155 | 1.6 | 6.4 | 0.00 | 0.00 | 0.00 | 72 | 1011.7 |
| 20260905225003 | 27 | 155 | 1.6 | 6.4 | 0.00 | 0.00 | 0.00 | 71 | 1011.7 |
| 20260905224803 | 27 | 155 | 1.6 | 6.4 | 0.00 | 0.00 | 0.00 | 71 | 1011.7 |
| 20260905224603 | 27 | 155 | 1.6 | 6.4 | 0.00 | 0.00 | 0.00 | 71 | 1011.7 |
| 20260905224403 | 27 | 143 | 0.0 | 6.4 | 0.00 | 0.00 | 0.00 | 71 | 1011.7 |
| 20260905224203 | 27 | 59 | 0.0 | 6.4 | 0.00 | 0.00 | 0.00 | 68 | 1012.0 |
| 20260905224004 | 27 | 55 | 0.0 | 6.4 | 0.00 | 0.00 | 0.00 | 69 | 1012.0 |
| 20260905223804 | 27 | 49 | 1.6 | 6.4 | 0.00 | 0.00 | 0.00 | 68 | 1012.0 |
| 20260905223604 | 27 | 49 | 3.2 | 6.4 | 0.00 | 0.00 | 0.00 | 67 | 1012.0 |
| 20260905223403 | 27 | 48 | 3.2 | 6.4 | 0.00 | 0.00 | 0.00 | 67 | 1012.1 |
| 20260905223203 | 27 | 44 | 4.8 | 8.0 | 0.00 | 0.00 | 0.00 | 68 | 1012.1 |
| 20260905223003 | 27 | 43 | 4.8 | 8.0 | 0.00 | 0.00 | 0.00 | 67 | 1012.0 |
| 20260905222803 | 27 | 43 | 4.8 | 8.0 | 0.00 | 0.00 | 0.00 | 67 | 1012.2 |
| 20260905222604 | 27 | 42 | 4.8 | 8.0 | 0.00 | 0.00 | 0.00 | 68 | 1012.2 |
| 20260905222404 | 27 | 42 | 4.8 | 8.0 | 0.00 | 0.00 | 0.00 | 68 | 1012.3 |
| 20260905222204 | 27 | 44 | 4.8 | 8.0 | 0.00 | 0.00 | 0.00 | 68 | 1012.3 |
| 20260905222003 | 27 | 45 | 4.8 | 8.0 | 0.00 | 0.00 | 0.00 | 68 | 1012.3 |
| 20260905221803 | 27 | 46 | 3.2 | 6.4 | 0.00 | 0.00 | 0.00 | 67 | 1012.3 |
| 20260905221603 | 27 | 48 | 1.6 | 6.4 | 0.00 | 0.00 | 0.00 | 68 | 1012.3 |
| 20260905221403 | 27 | 50 | 1.6 | 6.4 | 0.00 | 0.00 | 0.00 | 68 | 1012.3 |
| 20260905221204 | 27 | 48 | 0.0 | 3.2 | 0.00 | 0.00 | 0.00 | 67 | 1012.2 |
| 20260905221004 | 27 | 48 | 0.0 | 1.6 | 0.00 | 0.00 | 0.00 | 67 | 1012.2 |
| 20260905220804 | 27 | 48 | 0.0 | 1.6 | 0.00 | 0.00 | 0.00 | 67 | 1012.2 |
| 20260905220603 | 27 | 0 | 0.0 | 0.0 | 0.00 | 0.00 | 0.00 | 66 | 1012.2 |
| 20260905220403 | 27 | 0 | 0.0 | 0.0 | 0.00 | 0.00 | 0.00 | 66 | 1012.2 |
| 20260905220203 | 27 | 49 | 0.0 | 4.8 | 0.00 | 0.00 | 0.00 | 66 | 1012.2 |
| 20260905220003 | 27 | 53 | 1.6 | 8.0 | 0.00 | 0.00 | 0.00 | 66 | 1012.2 |
| 20260905215804 | 27 | 51 | 3.2 | 9.7 | 0.00 | 0.00 | 0.00 | 65 | 1012.2 |
| 20260905215604 | 27 | 54 | 4.8 | 9.7 | 0.00 | 0.00 | 0.00 | 65 | 1012.2 |
| 20260905215404 | 27 | 53 | 4.8 | 9.7 | 0.00 | 0.00 | 0.00 | 65 | 1012.2 |
| 20260905215203 | 27 | 52 | 6.4 | 9.7 | 0.00 | 0.00 | 0.00 | 65 | 1012.2 |
| 20260905215003 | 27 | 50 | 6.4 | 9.7 | 0.00 | 0.00 | 0.00 | 64 | 1012.2 |
| 20260905214803 | 27 | 50 | 4.8 | 9.7 | 0.00 | 0.00 | 0.00 | 64 | 1012.2 |
| 20260905214603 | 28 | 47 | 4.8 | 9.7 | 0.00 | 0.00 | 0.00 | 64 | 1012.2 |
| 20260905214404 | 28 | 47 | 4.8 | 9.7 | 0.00 | 0.00 | 0.00 | 64 | 1012.2 |
| 20260905214204 | 28 | 48 | 4.8 | 8.0 | 0.00 | 0.00 | 0.00 | 64 | 1012.3 |
| 20260905214004 | 28 | 51 | 3.2 | 8.0 | 0.00 | 0.00 | 0.00 | 64 | 1012.3 |
| 20260905213803 | 28 | 53 | 4.8 | 12.9 | 0.00 | 0.00 | 0.00 | 63 | 1012.4 |
| 20260905213603 | 28 | 60 | 4.8 | 17.7 | 0.00 | 0.00 | 0.00 | 63 | 1012.4 |
| 20260905213403 | 28 | 73 | 4.8 | 17.7 | 0.00 | 0.00 | 0.00 | 63 | 1012.5 |
| 20260905213204 | 28 | 80 | 4.8 | 17.7 | 0.00 | 0.00 | 0.00 | 62 | 1012.4 |
| 20260905213004 | 28 | 89 | 4.8 | 17.7 | 0.00 | 0.00 | 0.00 | 62 | 1012.5 |
| 20260905212804 | 29 | 114 | 3.2 | 17.7 | 0.00 | 0.00 | 0.00 | 61 | 1012.7 |
| 20260905212604 | 29 | 174 | 1.6 | 12.9 | 0.00 | 0.00 | 0.00 | 62 | 1012.7 |
| 20260905212403 | 29 | 174 | 1.6 | 8.0 | 0.00 | 0.00 | 0.00 | 63 | 1012.7 |
| 20260905212203 | 29 | 173 | 1.6 | 8.0 | 0.00 | 0.00 | 0.00 | 65 | 1012.8 |
| 20260905212003 | 29 | 173 | 3.2 | 9.7 | 0.00 | 0.00 | 0.00 | 65 | 1012.8 |
| 20260905211803 | 29 | 173 | 3.2 | 9.7 | 0.00 | 0.00 | 0.00 | 65 | 1012.8 |
| 20260905211604 | 29 | 173 | 3.2 | 9.7 | 0.00 | 0.00 | 0.00 | 65 | 1012.8 |
| 20260905211404 | 29 | 173 | 3.2 | 9.7 | 0.00 | 0.00 | 0.00 | 65 | 1012.8 |
| 20260905211204 | 29 | 173 | 3.2 | 12.9 | 0.00 | 0.00 | 0.00 | 64 | 1012.9 |
| 20260905211003 | 29 | 173 | 4.8 | 17.7 | 0.00 | 0.00 | 0.00 | 64 | 1012.9 |
| 20260905210803 | 29 | 173 | 6.4 | 17.7 | 0.00 | 0.00 | 0.00 | 64 | 1012.9 |
| 20260905210603 | 29 | 173 | 6.4 | 17.7 | 0.00 | 0.00 | 0.00 | 64 | 1012.7 |
| 20260905210403 | 30 | 173 | 8.0 | 17.7 | 0.00 | 0.00 | 0.00 | 64 | 1012.8 |
| 20260905210203 | 30 | 173 | 8.0 | 17.7 | 0.00 | 0.00 | 0.00 | 63 | 1012.9 |
| 20260905210003 | 30 | 173 | 6.4 | 16.1 | 0.00 | 0.00 | 0.00 | 62 | 1012.8 |
| 20260905205804 | 30 | 173 | 4.8 | 14.5 | 0.00 | 0.00 | 0.00 | 61 | 1013.2 |
| 20260905205604 | 30 | 173 | 6.4 | 14.5 | 0.00 | 0.00 | 0.00 | 61 | 1013.1 |
| 20260905205404 | 29 | 173 | 4.8 | 14.5 | 0.00 | 0.00 | 0.00 | 61 | 1013.1 |
| 20260905205203 | 29 | 173 | 6.4 | 16.1 | 0.00 | 0.00 | 0.00 | 61 | 1013.1 |
| 20260905205003 | 29 | 173 | 6.4 | 16.1 | 0.00 | 0.00 | 0.00 | 61 | 1013.1 |
| 20260905204803 | 29 | 173 | 8.0 | 17.7 | 0.00 | 0.00 | 0.00 | 61 | 1013.1 |
| 20260905204604 | 29 | 173 | 8.0 | 17.7 | 0.00 | 0.00 | 0.00 | 61 | 1013.1 |
| 20260905204404 | 29 | 173 | 9.7 | 19.3 | 0.00 | 0.00 | 0.00 | 61 | 1013.1 |
| 20260905204204 | 29 | 173 | 9.7 | 19.3 | 0.00 | 0.00 | 0.00 | 62 | 1012.8 |
| 20260905204003 | 29 | 173 | 8.0 | 19.3 | 0.00 | 0.00 | 0.00 | 62 | 1012.8 |
| 20260905203803 | 30 | 173 | 6.4 | 19.3 | 0.00 | 0.00 | 0.00 | 62 | 1012.9 |
| 20260905203603 | 30 | 173 | 4.8 | 19.3 | 0.00 | 0.00 | 0.00 | 62 | 1012.9 |
| 20260905203403 | 30 | 173 | 3.2 | 12.9 | 0.00 | 0.00 | 0.00 | 61 | 1012.9 |
| 20260905203204 | 30 | 173 | 3.2 | 9.7 | 0.00 | 0.00 | 0.00 | 60 | 1012.8 |
| 20260905203004 | 29 | 173 | 3.2 | 9.7 | 0.00 | 0.00 | 0.00 | 62 | 1012.8 |
| 20260905202803 | 29 | 173 | 3.2 | 9.7 | 0.00 | 0.00 | 0.00 | 62 | 1013.4 |
| 20260905202603 | 29 | 173 | 3.2 | 9.7 | 0.00 | 0.00 | 0.00 | 62 | 1013.4 |
| 20260905202403 | 28 | 173 | 3.2 | 9.7 | 0.00 | 0.00 | 0.00 | 62 | 1013.3 |
| 20260905202203 | 28 | 173 | 3.2 | 9.7 | 0.00 | 0.00 | 0.00 | 63 | 1013.3 |
| 20260905202003 | 28 | 173 | 3.2 | 11.3 | 0.00 | 0.00 | 0.00 | 63 | 1013.3 |
| 20260905201803 | 28 | 173 | 3.2 | 11.3 | 0.00 | 0.00 | 0.00 | 65 | 1013.3 |
| 20260905201604 | 28 | 173 | 3.2 | 11.3 | 0.00 | 0.00 | 0.00 | 65 | 1013.3 |
| 20260905201404 | 28 | 173 | 4.8 | 11.3 | 0.00 | 0.00 | 0.00 | 66 | 1013.3 |
| 20260905201204 | 27 | 173 | 4.8 | 12.9 | 0.00 | 0.00 | 0.00 | 66 | 1012.8 |
| 20260905201003 | 27 | 173 | 6.4 | 12.9 | 0.00 | 0.00 | 0.00 | 67 | 1012.8 |
| 20260905200803 | 27 | 173 | 6.4 | 12.9 | 0.00 | 0.00 | 0.00 | 67 | 1012.8 |
| 20260905200603 | 27 | 173 | 6.4 | 16.1 | 0.00 | 0.00 | 0.00 | 67 | 1012.8 |
| 20260905200403 | 27 | 173 | 6.4 | 16.1 | 0.00 | 0.00 | 0.00 | 68 | 1012.8 |
| 20260905200203 | 27 | 173 | 6.4 | 16.1 | 0.00 | 0.00 | 0.00 | 68 | 1012.8 |
| 20260905200003 | 27 | 173 | 6.4 | 16.1 | 0.00 | 0.00 | 0.00 | 68 | 1012.8 |
| 20260905195804 | 27 | 173 | 4.8 | 16.1 | 0.00 | 0.00 | 0.00 | 68 | 1013.5 |
| 20260905195604 | 27 | 173 | 4.8 | 14.5 | 0.00 | 0.00 | 0.00 | 68 | 1013.5 |
| 20260905195403 | 27 | 175 | 6.4 | 16.1 | 0.00 | 0.00 | 0.00 | 68 | 1013.5 |
| 20260905195203 | 27 | 175 | 6.4 | 19.3 | 0.00 | 0.00 | 0.00 | 68 | 1013.5 |
| 20260905195004 | 27 | 174 | 8.0 | 22.5 | 0.00 | 0.00 | 0.00 | 68 | 1013.5 |
| 20260905194803 | 27 | 171 | 8.0 | 22.5 | 0.00 | 0.00 | 0.00 | 68 | 1013.5 |
| 20260905194603 | 27 | 168 | 9.7 | 30.6 | 0.00 | 0.00 | 0.00 | 68 | 1013.5 |
| 20260905194404 | 27 | 169 | 9.7 | 30.6 | 0.00 | 0.00 | 0.00 | 67 | 1013.5 |
| 20260905194204 | 27 | 171 | 9.7 | 30.6 | 0.00 | 0.00 | 0.00 | 68 | 1013.2 |
| 20260905194004 | 28 | 171 | 11.3 | 30.6 | 0.00 | 0.00 | 0.00 | 67 | 1013.3 |
| 20260905193803 | 28 | 169 | 12.9 | 30.6 | 0.00 | 0.00 | 0.00 | 67 | 1013.3 |
| 20260905193603 | 28 | 169 | 12.9 | 30.6 | 0.00 | 0.00 | 0.00 | 67 | 1013.4 |
| 20260905193403 | 28 | 166 | 12.9 | 30.6 | 0.00 | 0.00 | 0.00 | 66 | 1013.5 |
| 20260905193204 | 30 | 164 | 14.5 | 30.6 | 0.00 | 0.00 | 0.00 | 64 | 1013.5 |
| 20260905193004 | 30 | 165 | 12.9 | 30.6 | 0.00 | 0.00 | 0.00 | 61 | 1013.6 |
| 20260905192804 | 31 | 170 | 11.3 | 30.6 | 0.00 | 0.00 | 0.00 | 59 | 1013.2 |
| 20260905192603 | 32 | 174 | 9.7 | 29.0 | 0.00 | 0.00 | 0.00 | 58 | 1013.2 |
| 20260905192403 | 32 | 179 | 9.7 | 29.0 | 0.00 | 0.00 | 0.00 | 57 | 1013.3 |
| 20260905192203 | 32 | 182 | 8.0 | 17.7 | 0.00 | 0.00 | 0.00 | 57 | 1013.3 |
| 20260905192003 | 32 | 182 | 8.0 | 17.7 | 0.00 | 0.00 | 0.00 | 56 | 1013.3 |
| 20260905191803 | 32 | 182 | 8.0 | 17.7 | 0.00 | 0.00 | 0.00 | 56 | 1013.3 |
| 20260905191604 | 32 | 182 | 6.4 | 17.7 | 0.00 | 0.00 | 0.00 | 55 | 1013.3 |
| 20260905191404 | 33 | 182 | 6.4 | 12.9 | 0.00 | 0.00 | 0.00 | 56 | 1013.3 |
| 20260905191204 | 33 | 182 | 6.4 | 12.9 | 0.00 | 0.00 | 0.00 | 56 | 1013.3 |
| 20260905191003 | 33 | 182 | 6.4 | 12.9 | 0.00 | 0.00 | 0.00 | 56 | 1013.3 |
| 20260905190803 | 33 | 182 | 6.4 | 12.9 | 0.00 | 0.00 | 0.00 | 55 | 1013.3 |
| 20260905190603 | 33 | 182 | 4.8 | 12.9 | 0.00 | 0.00 | 0.00 | 56 | 1013.3 |
| 20260905190403 | 33 | 182 | 3.2 | 12.9 | 0.00 | 0.00 | 0.00 | 56 | 1013.3 |
| 20260905190203 | 33 | 182 | 3.2 | 11.3 | 0.00 | 0.00 | 0.00 | 54 | 1013.3 |
| 20260905190004 | 33 | 182 | 3.2 | 11.3 | 0.00 | 0.00 | 0.00 | 56 | 1013.3 |
| 20260905185804 | 32 | 182 | 3.2 | 11.3 | 0.00 | 0.00 | 0.00 | 57 | 1013.3 |
| 20260905185604 | 32 | 182 | 3.2 | 9.7 | 0.00 | 0.00 | 0.00 | 56 | 1013.3 |
| 20260905185403 | 32 | 182 | 3.2 | 9.7 | 0.00 | 0.00 | 0.00 | 57 | 1013.3 |
| 20260905185203 | 32 | 182 | 3.2 | 9.7 | 0.00 | 0.00 | 0.00 | 56 | 1013.3 |
| 20260905185003 | 32 | 182 | 3.2 | 9.7 | 0.00 | 0.00 | 0.00 | 56 | 1013.3 |
| 20260905184803 | 33 | 182 | 3.2 | 14.5 | 0.00 | 0.00 | 0.00 | 55 | 1013.3 |
| 20260905184603 | 33 | 182 | 3.2 | 14.5 | 0.00 | 0.00 | 0.00 | 55 | 1013.3 |
| 20260905184403 | 33 | 182 | 4.8 | 14.5 | 0.00 | 0.00 | 0.00 | 54 | 1013.3 |
| 20260905184204 | 33 | 182 | 4.8 | 14.5 | 0.00 | 0.00 | 0.00 | 54 | 1013.3 |
| 20260905184004 | 33 | 182 | 4.8 | 14.5 | 0.00 | 0.00 | 0.00 | 53 | 1013.3 |
| 20260905183803 | 33 | 182 | 4.8 | 12.9 | 0.00 | 0.00 | 0.00 | 55 | 1013.3 |
| 20260905183603 | 33 | 182 | 4.8 | 12.9 | 0.00 | 0.00 | 0.00 | 54 | 1013.3 |
| 20260905183403 | 33 | 182 | 4.8 | 12.9 | 0.00 | 0.00 | 0.00 | 55 | 1013.3 |
| 20260905183203 | 33 | 182 | 3.2 | 12.9 | 0.00 | 0.00 | 0.00 | 55 | 1013.3 |
| 20260905183003 | 33 | 182 | 4.8 | 12.9 | 0.00 | 0.00 | 0.00 | 54 | 1013.3 |
| 20260905182804 | 33 | 182 | 4.8 | 12.9 | 0.00 | 0.00 | 0.00 | 54 | 1013.5 |
| 20260905182604 | 33 | 182 | 3.2 | 11.3 | 0.00 | 0.00 | 0.00 | 54 | 1013.5 |
| 20260905182404 | 33 | 182 | 3.2 | 11.3 | 0.00 | 0.00 | 0.00 | 54 | 1013.5 |
| 20260905182203 | 33 | 182 | 4.8 | 14.5 | 0.00 | 0.00 | 0.00 | 53 | 1013.5 |
| 20260905182003 | 33 | 182 | 4.8 | 14.5 | 0.00 | 0.00 | 0.00 | 54 | 1013.5 |
| 20260905181803 | 33 | 182 | 4.8 | 14.5 | 0.00 | 0.00 | 0.00 | 55 | 1013.5 |
| 20260905181603 | 33 | 182 | 3.2 | 14.5 | 0.00 | 0.00 | 0.00 | 55 | 1013.5 |
| 20260905181404 | 32 | 182 | 3.2 | 14.5 | 0.00 | 0.00 | 0.00 | 55 | 1013.5 |
| 20260905181204 | 33 | 182 | 3.2 | 11.3 | 0.00 | 0.00 | 0.00 | 55 | 1013.8 |
| 20260905181004 | 33 | 182 | 3.2 | 11.3 | 0.00 | 0.00 | 0.00 | 55 | 1013.8 |
| 20260905180803 | 33 | 182 | 4.8 | 11.3 | 0.00 | 0.00 | 0.00 | 55 | 1013.8 |
| 20260905180603 | 33 | 182 | 4.8 | 11.3 | 0.00 | 0.00 | 0.00 | 54 | 1013.8 |
| 20260905180403 | 33 | 182 | 6.4 | 12.9 | 0.00 | 0.00 | 0.00 | 54 | 1013.7 |
| 20260905180204 | 33 | 182 | 6.4 | 14.5 | 0.00 | 0.00 | 0.00 | 53 | 1013.8 |
| 20260905180004 | 33 | 182 | 6.4 | 14.5 | 0.00 | 0.00 | 0.00 | 53 | 1013.8 |
| 20260905175804 | 33 | 182 | 4.8 | 14.5 | 0.00 | 0.00 | 0.00 | 54 | 1013.8 |
| 20260905175603 | 33 | 182 | 4.8 | 14.5 | 0.00 | 0.00 | 0.00 | 53 | 1013.8 |
| 20260905175404 | 33 | 182 | 4.8 | 14.5 | 0.00 | 0.00 | 0.00 | 53 | 1013.8 |
| 20260905175203 | 33 | 182 | 3.2 | 12.9 | 0.00 | 0.00 | 0.00 | 55 | 1013.8 |
| 20260905175003 | 33 | 182 | 3.2 | 12.9 | 0.00 | 0.00 | 0.00 | 55 | 1013.8 |
| 20260905174803 | 33 | 182 | 4.8 | 14.5 | 0.00 | 0.00 | 0.00 | 56 | 1013.8 |
| 20260905174604 | 32 | 182 | 4.8 | 14.5 | 0.00 | 0.00 | 0.00 | 56 | 1013.8 |
| 20260905174404 | 32 | 182 | 6.4 | 14.5 | 0.00 | 0.00 | 0.00 | 55 | 1013.8 |
| 20260905174204 | 32 | 182 | 6.4 | 14.5 | 0.00 | 0.00 | 0.00 | 55 | 1013.9 |
| 20260905174003 | 32 | 182 | 6.4 | 14.5 | 0.00 | 0.00 | 0.00 | 55 | 1013.9 |
| 20260905173803 | 32 | 182 | 6.4 | 11.3 | 0.00 | 0.00 | 0.00 | 57 | 1013.8 |
| 20260905173603 | 32 | 182 | 4.8 | 11.3 | 0.00 | 0.00 | 0.00 | 56 | 1013.8 |
| 20260905173403 | 32 | 182 | 4.8 | 11.3 | 0.00 | 0.00 | 0.00 | 57 | 1013.8 |
| 20260905173204 | 32 | 182 | 4.8 | 11.3 | 0.00 | 0.00 | 0.00 | 57 | 1013.8 |
| 20260905173004 | 32 | 182 | 3.2 | 11.3 | 0.00 | 0.00 | 0.00 | 57 | 1013.8 |
| 20260905172804 | 32 | 182 | 3.2 | 9.7 | 0.00 | 0.00 | 0.00 | 58 | 1014.2 |
| 20260905172603 | 32 | 182 | 4.8 | 12.9 | 0.00 | 0.00 | 0.00 | 57 | 1014.2 |
| 20260905172403 | 32 | 182 | 4.8 | 12.9 | 0.00 | 0.00 | 0.00 | 57 | 1014.2 |
| 20260905172203 | 32 | 182 | 6.4 | 12.9 | 0.00 | 0.00 | 0.00 | 57 | 1014.2 |
| 20260905172003 | 32 | 182 | 6.4 | 12.9 | 0.00 | 0.00 | 0.00 | 58 | 1014.2 |
| 20260905171803 | 32 | 182 | 6.4 | 14.5 | 0.00 | 0.00 | 0.00 | 57 | 1014.2 |
| 20260905171604 | 32 | 182 | 4.8 | 14.5 | 0.00 | 0.00 | 0.00 | 58 | 1014.2 |
| 20260905171404 | 32 | 182 | 4.8 | 14.5 | 0.00 | 0.00 | 0.00 | 59 | 1014.2 |
| 20260905171204 | 32 | 182 | 4.8 | 14.5 | 0.00 | 0.00 | 0.00 | 58 | 1014.3 |
| 20260905171003 | 32 | 182 | 4.8 | 14.5 | 0.00 | 0.00 | 0.00 | 58 | 1014.3 |
| 20260905170803 | 32 | 182 | 4.8 | 12.9 | 0.00 | 0.00 | 0.00 | 58 | 1014.4 |
| 20260905170603 | 32 | 182 | 4.8 | 12.9 | 0.00 | 0.00 | 0.00 | 57 | 1014.4 |
| 20260905170404 | 32 | 182 | 6.4 | 14.5 | 0.00 | 0.00 | 0.00 | 57 | 1014.4 |
| 20260905170204 | 32 | 182 | 6.4 | 14.5 | 0.00 | 0.00 | 0.00 | 58 | 1014.3 |
| 20260905170004 | 32 | 182 | 6.4 | 16.1 | 0.00 | 0.00 | 0.00 | 58 | 1014.4 |
| 20260905165803 | 32 | 182 | 6.4 | 16.1 | 0.00 | 0.00 | 0.00 | 57 | 1014.3 |
| 20260905165603 | 32 | 182 | 6.4 | 16.1 | 0.00 | 0.00 | 0.00 | 57 | 1014.3 |
| 20260905165403 | 33 | 182 | 6.4 | 16.1 | 0.00 | 0.00 | 0.00 | 56 | 1014.5 |
| 20260905165203 | 33 | 182 | 6.4 | 16.1 | 0.00 | 0.00 | 0.00 | 57 | 1014.5 |
| 20260905165003 | 33 | 182 | 4.8 | 12.9 | 0.00 | 0.00 | 0.00 | 58 | 1014.3 |
| 20260905164804 | 32 | 182 | 4.8 | 12.9 | 0.00 | 0.00 | 0.00 | 58 | 1014.3 |
| 20260905164604 | 32 | 182 | 4.8 | 12.9 | 0.00 | 0.00 | 0.00 | 58 | 1014.3 |
| 20260905164404 | 32 | 182 | 3.2 | 12.9 | 0.00 | 0.00 | 0.00 | 59 | 1014.3 |
| 20260905164203 | 32 | 182 | 3.2 | 12.9 | 0.00 | 0.00 | 0.00 | 59 | 1014.6 |
| 20260905164003 | 32 | 182 | 3.2 | 12.9 | 0.00 | 0.00 | 0.00 | 60 | 1014.6 |
| 20260905163803 | 32 | 182 | 3.2 | 11.3 | 0.00 | 0.00 | 0.00 | 59 | 1014.6 |
| 20260905163604 | 32 | 182 | 1.6 | 8.0 | 0.00 | 0.00 | 0.00 | 60 | 1014.6 |
| 20260905163404 | 32 | 182 | 1.6 | 8.0 | 0.00 | 0.00 | 0.00 | 60 | 1014.6 |
| 20260905163204 | 32 | 182 | 1.6 | 8.0 | 0.00 | 0.00 | 0.00 | 61 | 1014.6 |
| 20260905163003 | 32 | 182 | 3.2 | 8.0 | 0.00 | 0.00 | 0.00 | 61 | 1014.6 |
| 20260905162803 | 31 | 182 | 3.2 | 9.7 | 0.00 | 0.00 | 0.00 | 61 | 1014.8 |
| 20260905162603 | 31 | 182 | 4.8 | 11.3 | 0.00 | 0.00 | 0.00 | 62 | 1014.8 |
| 20260905162403 | 31 | 182 | 4.8 | 11.3 | 0.00 | 0.00 | 0.00 | 61 | 1014.8 |
| 20260905162203 | 31 | 182 | 3.2 | 11.3 | 0.00 | 0.00 | 0.00 | 62 | 1014.8 |
| 20260905162004 | 31 | 182 | 4.8 | 11.3 | 0.00 | 0.00 | 0.00 | 61 | 1014.8 |
| 20260905161804 | 31 | 182 | 3.2 | 11.3 | 0.00 | 0.00 | 0.00 | 60 | 1014.8 |
| 20260905161604 | 32 | 182 | 3.2 | 11.3 | 0.00 | 0.00 | 0.00 | 61 | 1014.8 |
| 20260905161403 | 32 | 182 | 3.2 | 11.3 | 0.00 | 0.00 | 0.00 | 61 | 1014.8 |
| 20260905161203 | 32 | 182 | 4.8 | 12.9 | 0.00 | 0.00 | 0.00 | 61 | 1014.7 |
| 20260905161003 | 32 | 182 | 4.8 | 12.9 | 0.00 | 0.00 | 0.00 | 61 | 1014.7 |
| 20260905160804 | 32 | 182 | 4.8 | 12.9 | 0.00 | 0.00 | 0.00 | 60 | 1014.7 |
| 20260905160604 | 32 | 182 | 6.4 | 12.9 | 0.00 | 0.00 | 0.00 | 59 | 1014.7 |
| 20260905160404 | 32 | 182 | 4.8 | 12.9 | 0.00 | 0.00 | 0.00 | 59 | 1014.8 |
| 20260905160203 | 32 | 182 | 4.8 | 12.9 | 0.00 | 0.00 | 0.00 | 59 | 1014.8 |
| 20260905160003 | 32 | 182 | 3.2 | 12.9 | 0.00 | 0.00 | 0.00 | 60 | 1014.8 |
| 20260905155803 | 32 | 182 | 3.2 | 12.9 | 0.00 | 0.00 | 0.00 | 58 | 1015.0 |
| 20260905155603 | 32 | 182 | 3.2 | 12.9 | 0.00 | 0.00 | 0.00 | 59 | 1015.0 |
| 20260905155404 | 32 | 182 | 3.2 | 9.7 | 0.00 | 0.00 | 0.00 | 61 | 1015.0 |
| 20260905155204 | 32 | 182 | 3.2 | 9.7 | 0.00 | 0.00 | 0.00 | 60 | 1014.9 |
| 20260905155004 | 32 | 182 | 3.2 | 9.7 | 0.00 | 0.00 | 0.00 | 61 | 1014.9 |
| 20260905154803 | 32 | 182 | 3.2 | 9.7 | 0.00 | 0.00 | 0.00 | 63 | 1014.9 |
| 20260905154603 | 32 | 182 | 3.2 | 9.7 | 0.00 | 0.00 | 0.00 | 62 | 1014.9 |
| 20260905154403 | 32 | 182 | 4.8 | 9.7 | 0.00 | 0.00 | 0.00 | 64 | 1014.9 |
| 20260905154203 | 32 | 182 | 4.8 | 14.5 | 0.00 | 0.00 | 0.00 | 63 | 1014.8 |
| 20260905154003 | 32 | 182 | 4.8 | 14.5 | 0.00 | 0.00 | 0.00 | 62 | 1014.8 |
| 20260905153804 | 32 | 182 | 4.8 | 14.5 | 0.00 | 0.00 | 0.00 | 62 | 1014.8 |
| 20260905153604 | 32 | 182 | 4.8 | 14.5 | 0.00 | 0.00 | 0.00 | 63 | 1014.8 |
| 20260905153403 | 32 | 182 | 4.8 | 14.5 | 0.00 | 0.00 | 0.00 | 61 | 1014.8 |
| 20260905153203 | 32 | 182 | 3.2 | 11.3 | 0.00 | 0.00 | 0.00 | 63 | 1014.9 |
| 20260905153003 | 31 | 182 | 3.2 | 11.3 | 0.00 | 0.00 | 0.00 | 62 | 1014.8 |
| 20260905152803 | 31 | 182 | 3.2 | 11.3 | 0.00 | 0.00 | 0.00 | 63 | 1015.1 |
| 20260905152603 | 31 | 182 | 3.2 | 11.3 | 0.00 | 0.00 | 0.00 | 64 | 1015.2 |
| 20260905152404 | 31 | 182 | 3.2 | 11.3 | 0.00 | 0.00 | 0.00 | 65 | 1015.1 |
| 20260905152204 | 31 | 182 | 3.2 | 11.3 | 0.00 | 0.00 | 0.00 | 65 | 1015.0 |
| 20260905152004 | 31 | 182 | 3.2 | 11.3 | 0.00 | 0.00 | 0.00 | 65 | 1015.0 |
| 20260905151803 | 31 | 182 | 3.2 | 11.3 | 0.00 | 0.00 | 0.00 | 66 | 1015.0 |
| 20260905151603 | 31 | 182 | 4.8 | 11.3 | 0.00 | 0.00 | 0.00 | 66 | 1015.0 |
| 20260905151403 | 31 | 182 | 4.8 | 11.3 | 0.00 | 0.00 | 0.00 | 66 | 1015.0 |
| 20260905151203 | 31 | 182 | 3.2 | 11.3 | 0.00 | 0.00 | 0.00 | 65 | 1015.1 |
| 20260905151003 | 31 | 182 | 3.2 | 11.3 | 0.00 | 0.00 | 0.00 | 65 | 1015.1 |
| 20260905150804 | 31 | 182 | 3.2 | 11.3 | 0.00 | 0.00 | 0.00 | 65 | 1015.1 |
| 20260905150604 | 30 | 182 | 3.2 | 12.9 | 0.00 | 0.00 | 0.00 | 67 | 1015.1 |
| 20260905150404 | 30 | 182 | 4.8 | 12.9 | 0.00 | 0.00 | 0.00 | 67 | 1015.1 |
| 20260905150203 | 30 | 182 | 4.8 | 12.9 | 0.00 | 0.00 | 0.00 | 65 | 1015.1 |
| 20260905150003 | 30 | 182 | 6.4 | 12.9 | 0.00 | 0.00 | 0.00 | 69 | 1015.1 |
| 20260905145803 | 30 | 182 | 4.8 | 12.9 | 0.00 | 0.00 | 0.00 | 68 | 1015.3 |
| 20260905145603 | 30 | 182 | 6.4 | 11.3 | 0.00 | 0.00 | 0.00 | 69 | 1015.2 |
| 20260905145404 | 30 | 182 | 4.8 | 11.3 | 0.00 | 0.00 | 0.00 | 70 | 1015.2 |
| 20260905145204 | 30 | 182 | 4.8 | 11.3 | 0.00 | 0.00 | 0.00 | 70 | 1015.1 |
| 20260905145004 | 30 | 182 | 3.2 | 9.7 | 0.00 | 0.00 | 0.00 | 69 | 1015.1 |
| 20260905144803 | 30 | 182 | 3.2 | 9.7 | 0.00 | 0.00 | 0.00 | 70 | 1015.2 |
| 20260905144603 | 30 | 182 | 3.2 | 11.3 | 0.00 | 0.00 | 0.00 | 71 | 1015.2 |
| 20260905144403 | 30 | 182 | 3.2 | 11.3 | 0.00 | 0.00 | 0.00 | 71 | 1015.1 |
| 20260905144203 | 30 | 182 | 3.2 | 11.3 | 0.00 | 0.00 | 0.00 | 72 | 1015.3 |
| 20260905144003 | 30 | 182 | 4.8 | 14.5 | 0.00 | 0.00 | 0.00 | 74 | 1015.3 |
| 20260905143804 | 29 | 182 | 6.4 | 14.5 | 0.00 | 0.00 | 0.00 | 74 | 1015.3 |
| 20260905143604 | 29 | 182 | 6.4 | 14.5 | 0.00 | 0.00 | 0.00 | 75 | 1015.3 |
| 20260905143404 | 29 | 182 | 6.4 | 14.5 | 0.00 | 0.00 | 0.00 | 75 | 1015.3 |
| 20260905143203 | 29 | 182 | 6.4 | 14.5 | 0.00 | 0.00 | 0.00 | 73 | 1015.3 |
| 20260905143003 | 30 | 182 | 4.8 | 11.3 | 0.00 | 0.00 | 0.00 | 73 | 1015.3 |
| 20260905142803 | 30 | 182 | 4.8 | 11.3 | 0.00 | 0.00 | 0.00 | 72 | 1015.4 |
| 20260905142603 | 30 | 182 | 3.2 | 9.7 | 0.00 | 0.00 | 0.00 | 72 | 1015.5 |
| 20260905142404 | 30 | 182 | 1.6 | 8.0 | 0.00 | 0.00 | 0.00 | 72 | 1015.5 |
| 20260905142204 | 30 | 182 | 1.6 | 6.4 | 0.00 | 0.00 | 0.00 | 71 | 1015.3 |
| 20260905142004 | 30 | 182 | 1.6 | 3.2 | 0.00 | 0.00 | 0.00 | 68 | 1015.3 |
| 20260905141803 | 30 | 182 | 1.6 | 8.0 | 0.00 | 0.00 | 0.00 | 67 | 1015.3 |
| 20260905141603 | 30 | 182 | 1.6 | 8.0 | 0.00 | 0.00 | 0.00 | 67 | 1015.3 |
| 20260905141403 | 30 | 182 | 1.6 | 8.0 | 0.00 | 0.00 | 0.00 | 68 | 1015.3 |
| 20260905141203 | 30 | 182 | 1.6 | 8.0 | 0.00 | 0.00 | 0.00 | 68 | 1015.2 |
| 20260905141003 | 30 | 182 | 1.6 | 8.0 | 0.00 | 0.00 | 0.00 | 68 | 1015.2 |
| 20260905140803 | 30 | 182 | 1.6 | 4.8 | 0.00 | 0.00 | 0.00 | 68 | 1015.2 |
| 20260905140604 | 30 | 182 | 1.6 | 4.8 | 0.00 | 0.00 | 0.00 | 68 | 1015.2 |
| 20260905140404 | 30 | 182 | 0.0 | 3.2 | 0.00 | 0.00 | 0.00 | 71 | 1015.2 |
| 20260905140203 | 30 | 182 | 0.0 | 3.2 | 0.00 | 0.00 | 0.00 | 69 | 1015.2 |
| 20260905140004 | 30 | 182 | 1.6 | 6.4 | 0.00 | 0.00 | 0.00 | 70 | 1015.2 |
| 20260905135803 | 30 | 182 | 1.6 | 6.4 | 0.00 | 0.00 | 0.00 | 70 | 1015.4 |
| 20260905135603 | 30 | 182 | 1.6 | 6.4 | 0.00 | 0.00 | 0.00 | 73 | 1015.4 |
| 20260905135403 | 30 | 182 | 1.6 | 6.4 | 0.00 | 0.00 | 0.00 | 71 | 1015.4 |
| 20260905135204 | 30 | 182 | 1.6 | 8.0 | 0.00 | 0.00 | 0.00 | 72 | 1015.4 |
| 20260905135004 | 30 | 182 | 1.6 | 8.0 | 0.00 | 0.00 | 0.00 | 72 | 1015.4 |
| 20260905134804 | 30 | 182 | 1.6 | 8.0 | 0.00 | 0.00 | 0.00 | 72 | 1015.4 |
| 20260905134603 | 30 | 182 | 1.6 | 8.0 | 0.00 | 0.00 | 0.00 | 72 | 1015.4 |
| 20260905134403 | 30 | 182 | 1.6 | 8.0 | 0.00 | 0.00 | 0.00 | 73 | 1015.3 |
| 20260905134203 | 30 | 182 | 1.6 | 6.4 | 0.00 | 0.00 | 0.00 | 71 | 1015.6 |
| 20260905134003 | 30 | 182 | 1.6 | 6.4 | 0.00 | 0.00 | 0.00 | 71 | 1015.6 |
| 20260905133803 | 30 | 182 | 1.6 | 6.4 | 0.00 | 0.00 | 0.00 | 71 | 1015.6 |
| 20260905133603 | 30 | 182 | 0.0 | 6.4 | 0.00 | 0.00 | 0.00 | 72 | 1015.6 |
| 20260905133404 | 30 | 182 | 0.0 | 6.4 | 0.00 | 0.00 | 0.00 | 73 | 1015.6 |
| 20260905133204 | 29 | 182 | 0.0 | 3.2 | 0.00 | 0.00 | 0.00 | 73 | 1015.5 |
| 20260905133004 | 29 | 0 | 0.0 | 0.0 | 0.00 | 0.00 | 0.00 | 69 | 1015.5 |
| 20260905132803 | 29 | 0 | 0.0 | 0.0 | 0.00 | 0.00 | 0.00 | 69 | 1015.5 |
| 20260905132603 | 29 | 182 | 0.0 | 1.6 | 0.00 | 0.00 | 0.00 | 69 | 1015.5 |
| 20260905132403 | 29 | 182 | 0.0 | 3.2 | 0.00 | 0.00 | 0.00 | 71 | 1015.5 |
| 20260905132203 | 28 | 182 | 0.0 | 4.8 | 0.00 | 0.00 | 0.00 | 70 | 1015.5 |
| 20260905132003 | 28 | 182 | 0.0 | 4.8 | 0.00 | 0.00 | 0.00 | 72 | 1015.4 |
| 20260905131803 | 28 | 182 | 0.0 | 4.8 | 0.00 | 0.00 | 0.00 | 71 | 1015.5 |
| 20260905131604 | 28 | 182 | 1.6 | 4.8 | 0.00 | 0.00 | 0.00 | 71 | 1015.5 |
| 20260905131404 | 28 | 182 | 1.6 | 4.8 | 0.00 | 0.00 | 0.00 | 71 | 1015.5 |
| 20260905131204 | 28 | 182 | 1.6 | 4.8 | 0.00 | 0.00 | 0.00 | 71 | 1015.6 |
| 20260905131003 | 28 | 182 | 1.6 | 4.8 | 0.00 | 0.00 | 0.00 | 72 | 1015.6 |
| 20260905130803 | 28 | 182 | 1.6 | 4.8 | 0.00 | 0.00 | 0.00 | 72 | 1015.6 |
| 20260905130603 | 28 | 182 | 1.6 | 4.8 | 0.00 | 0.00 | 0.00 | 72 | 1015.6 |
| 20260905130403 | 28 | 182 | 1.6 | 3.2 | 0.00 | 0.00 | 0.00 | 72 | 1015.6 |
| 20260905130203 | 28 | 182 | 1.6 | 3.2 | 0.00 | 0.00 | 0.00 | 74 | 1015.6 |
| 20260905130004 | 27 | 182 | 1.6 | 3.2 | 0.00 | 0.00 | 0.00 | 73 | 1015.5 |
| 20260905125804 | 27 | 182 | 1.6 | 4.8 | 0.00 | 0.00 | 0.00 | 74 | 1015.5 |
| 20260905125603 | 27 | 182 | 1.6 | 4.8 | 0.00 | 0.00 | 0.00 | 74 | 1015.5 |
| 20260905125403 | 27 | 182 | 1.6 | 4.8 | 0.00 | 0.00 | 0.00 | 74 | 1015.5 |
| 20260905125203 | 27 | 182 | 1.6 | 4.8 | 0.00 | 0.00 | 0.00 | 74 | 1015.5 |
| 20260905125003 | 27 | 182 | 1.6 | 6.4 | 0.00 | 0.00 | 0.00 | 75 | 1015.5 |
| 20260905124803 | 27 | 182 | 1.6 | 6.4 | 0.00 | 0.00 | 0.00 | 75 | 1015.5 |
| 20260905124604 | 27 | 182 | 1.6 | 6.4 | 0.00 | 0.00 | 0.00 | 76 | 1015.5 |
| 20260905124404 | 27 | 182 | 1.6 | 6.4 | 0.00 | 0.00 | 0.00 | 76 | 1015.5 |
| 20260905124203 | 27 | 182 | 1.6 | 8.0 | 0.00 | 0.00 | 0.00 | 76 | 1015.5 |
| 20260905124003 | 27 | 182 | 3.2 | 8.0 | 0.00 | 0.00 | 0.00 | 76 | 1015.5 |
| 20260905123803 | 27 | 182 | 1.6 | 8.0 | 0.00 | 0.00 | 0.00 | 76 | 1015.5 |
| 20260905123603 | 27 | 182 | 1.6 | 8.0 | 0.00 | 0.00 | 0.00 | 76 | 1015.5 |
| 20260905123403 | 27 | 182 | 1.6 | 8.0 | 0.00 | 0.00 | 0.00 | 77 | 1015.5 |
| 20260905123203 | 26 | 182 | 1.6 | 6.4 | 0.00 | 0.00 | 0.00 | 77 | 1015.5 |
| 20260905123004 | 26 | 182 | 1.6 | 6.4 | 0.00 | 0.00 | 0.00 | 77 | 1015.4 |
| 20260905122804 | 26 | 182 | 1.6 | 6.4 | 0.00 | 0.00 | 0.00 | 77 | 1015.3 |
| 20260905122604 | 26 | 182 | 3.2 | 6.4 | 0.00 | 0.00 | 0.00 | 77 | 1015.4 |
| 20260905122403 | 26 | 182 | 3.2 | 6.4 | 0.00 | 0.00 | 0.00 | 78 | 1015.4 |
| 20260905122203 | 26 | 182 | 1.6 | 6.4 | 0.00 | 0.00 | 0.00 | 78 | 1015.4 |
| 20260905122003 | 26 | 182 | 3.2 | 8.0 | 0.00 | 0.00 | 0.00 | 79 | 1015.3 |
| 20260905121803 | 26 | 182 | 3.2 | 8.0 | 0.00 | 0.00 | 0.00 | 78 | 1015.4 |
| 20260905121603 | 26 | 182 | 3.2 | 8.0 | 0.00 | 0.00 | 0.00 | 79 | 1015.2 |
| 20260905121404 | 26 | 182 | 3.2 | 8.0 | 0.00 | 0.00 | 0.00 | 79 | 1015.2 |
| 20260905121204 | 26 | 182 | 3.2 | 9.7 | 0.00 | 0.00 | 0.00 | 79 | 1015.0 |
| 20260905121004 | 26 | 182 | 3.2 | 9.7 | 0.00 | 0.00 | 0.00 | 79 | 1015.0 |
| 20260905120804 | 26 | 182 | 3.2 | 9.7 | 0.00 | 0.00 | 0.00 | 80 | 1015.0 |
| 20260905120603 | 25 | 182 | 3.2 | 9.7 | 0.00 | 0.00 | 0.00 | 80 | 1015.0 |
| 20260905120403 | 25 | 182 | 3.2 | 9.7 | 0.00 | 0.00 | 0.00 | 81 | 1015.0 |
| 20260905120203 | 25 | 182 | 3.2 | 6.4 | 0.00 | 0.00 | 0.00 | 81 | 1015.0 |
| 20260905120004 | 25 | 182 | 3.2 | 6.4 | 0.00 | 0.00 | 0.00 | 81 | 1015.0 |
| 20260905115804 | 25 | 182 | 3.2 | 6.4 | 0.00 | 0.00 | 0.00 | 81 | 1014.9 |
| 20260905115603 | 25 | 182 | 3.2 | 6.4 | 0.00 | 0.00 | 0.00 | 81 | 1014.9 |
| 20260905115403 | 25 | 182 | 3.2 | 6.4 | 0.00 | 0.00 | 0.00 | 81 | 1014.9 |
| 20260905115203 | 25 | 182 | 3.2 | 6.4 | 0.00 | 0.00 | 0.00 | 81 | 1014.9 |
| 20260905115003 | 25 | 182 | 4.8 | 6.4 | 0.00 | 0.00 | 0.00 | 81 | 1014.9 |
| 20260905114803 | 25 | 182 | 4.8 | 8.0 | 0.00 | 0.00 | 0.00 | 81 | 1014.9 |
| 20260905114604 | 25 | 182 | 4.8 | 8.0 | 0.00 | 0.00 | 0.00 | 81 | 1014.9 |
| 20260905114404 | 25 | 182 | 4.8 | 8.0 | 0.00 | 0.00 | 0.00 | 81 | 1014.9 |
| 20260905114203 | 25 | 182 | 4.8 | 8.0 | 0.00 | 0.00 | 0.00 | 80 | 1014.7 |
| 20260905114003 | 25 | 182 | 4.8 | 8.0 | 0.00 | 0.00 | 0.00 | 80 | 1014.7 |
| 20260905113803 | 25 | 182 | 4.8 | 8.0 | 0.00 | 0.00 | 0.00 | 80 | 1014.7 |
| 20260905113603 | 25 | 182 | 4.8 | 8.0 | 0.00 | 0.00 | 0.00 | 81 | 1014.7 |
| 20260905113404 | 25 | 182 | 6.4 | 9.7 | 0.00 | 0.00 | 0.00 | 81 | 1014.7 |
| 20260905113204 | 25 | 182 | 4.8 | 9.7 | 0.00 | 0.00 | 0.00 | 82 | 1014.7 |
| 20260905113004 | 25 | 182 | 4.8 | 9.7 | 0.00 | 0.00 | 0.00 | 82 | 1014.7 |
| 20260905112803 | 25 | 182 | 4.8 | 9.7 | 0.00 | 0.00 | 0.00 | 83 | 1014.6 |
| 20260905112603 | 25 | 182 | 4.8 | 9.7 | 0.00 | 0.00 | 0.00 | 83 | 1014.6 |
| 20260905112403 | 25 | 182 | 4.8 | 9.7 | 0.00 | 0.00 | 0.00 | 85 | 1014.6 |
| 20260905112203 | 25 | 182 | 4.8 | 8.0 | 0.00 | 0.00 | 0.00 | 85 | 1014.6 |
| 20260905112003 | 25 | 182 | 4.8 | 8.0 | 0.00 | 0.00 | 0.00 | 86 | 1014.6 |
| 20260905111803 | 25 | 182 | 4.8 | 9.7 | 0.00 | 0.00 | 0.00 | 85 | 1014.6 |
| 20260905111604 | 25 | 182 | 4.8 | 9.7 | 0.00 | 0.00 | 0.00 | 85 | 1014.6 |
| 20260905111404 | 25 | 182 | 4.8 | 9.7 | 0.00 | 0.00 | 0.00 | 84 | 1014.6 |
| 20260905111203 | 25 | 182 | 4.8 | 9.7 | 0.00 | 0.00 | 0.00 | 85 | 1014.5 |
| 20260905111003 | 25 | 182 | 4.8 | 9.7 | 0.00 | 0.00 | 0.00 | 84 | 1014.5 |
| 20260905110803 | 25 | 182 | 4.8 | 9.7 | 0.00 | 0.00 | 0.00 | 84 | 1014.5 |
| 20260905110603 | 25 | 182 | 3.2 | 9.7 | 0.00 | 0.00 | 0.00 | 84 | 1014.5 |
| 20260905110404 | 25 | 182 | 3.2 | 9.7 | 0.00 | 0.00 | 0.00 | 84 | 1014.5 |
| 20260905110204 | 25 | 182 | 1.6 | 9.7 | 0.00 | 0.00 | 0.00 | 83 | 1014.4 |
| 20260905110004 | 25 | 182 | 1.6 | 6.4 | 0.00 | 0.00 | 0.00 | 83 | 1014.4 |
| 20260905105803 | 25 | 182 | 0.0 | 3.2 | 0.00 | 0.00 | 0.00 | 83 | 1014.3 |
| 20260905105603 | 25 | 182 | 0.0 | 3.2 | 0.00 | 0.00 | 0.00 | 82 | 1014.3 |
| 20260905105403 | 25 | 182 | 0.0 | 3.2 | 0.00 | 0.00 | 0.00 | 82 | 1014.3 |
| 20260905105203 | 25 | 182 | 0.0 | 3.2 | 0.00 | 0.00 | 0.00 | 82 | 1014.3 |
| 20260905105004 | 25 | 182 | 1.6 | 4.8 | 0.00 | 0.00 | 0.00 | 82 | 1014.3 |
| 20260905104804 | 25 | 182 | 1.6 | 6.4 | 0.00 | 0.00 | 0.00 | 82 | 1014.3 |
| 20260905104603 | 25 | 182 | 1.6 | 6.4 | 0.00 | 0.00 | 0.00 | 82 | 1014.3 |
| 20260905104403 | 25 | 182 | 1.6 | 6.4 | 0.00 | 0.00 | 0.00 | 82 | 1014.3 |
| 20260905104203 | 25 | 182 | 1.6 | 6.4 | 0.00 | 0.00 | 0.00 | 82 | 1014.0 |
| 20260905104003 | 25 | 182 | 0.0 | 6.4 | 0.00 | 0.00 | 0.00 | 82 | 1014.0 |
| 20260905103803 | 25 | 182 | 0.0 | 3.2 | 0.00 | 0.00 | 0.00 | 82 | 1014.0 |
| 20260905103604 | 25 | 182 | 0.0 | 3.2 | 0.00 | 0.00 | 0.00 | 82 | 1014.0 |
| 20260905103404 | 25 | 182 | 0.0 | 3.2 | 0.00 | 0.00 | 0.00 | 82 | 1014.1 |
| 20260905103204 | 25 | 182 | 0.0 | 3.2 | 0.00 | 0.00 | 0.00 | 82 | 1014.1 |
| 20260905103004 | 25 | 182 | 0.0 | 3.2 | 0.00 | 0.00 | 0.00 | 82 | 1014.1 |
| 20260905102803 | 25 | 182 | 0.0 | 3.2 | 0.00 | 0.00 | 0.00 | 82 | 1014.1 |
| 20260905102603 | 25 | 0 | 0.0 | 0.0 | 0.00 | 0.00 | 0.00 | 83 | 1014.1 |
| 20260905102403 | 25 | 0 | 0.0 | 0.0 | 0.00 | 0.00 | 0.00 | 83 | 1014.1 |
| 20260905102203 | 25 | 182 | 0.0 | 6.4 | 0.00 | 0.00 | 0.00 | 83 | 1014.1 |
| 20260905102003 | 25 | 182 | 1.6 | 6.4 | 0.00 | 0.00 | 0.00 | 83 | 1014.1 |
| 20260905101804 | 25 | 182 | 1.6 | 6.4 | 0.00 | 0.00 | 0.00 | 83 | 1014.1 |
| 20260905101604 | 25 | 182 | 1.6 | 6.4 | 0.00 | 0.00 | 0.00 | 83 | 1014.1 |
| 20260905101403 | 25 | 182 | 1.6 | 6.4 | 0.00 | 0.00 | 0.00 | 82 | 1014.1 |
| 20260905101203 | 25 | 182 | 1.6 | 6.4 | 0.00 | 0.00 | 0.00 | 82 | 1014.2 |
| 20260905101003 | 25 | 182 | 1.6 | 6.4 | 0.00 | 0.00 | 0.00 | 82 | 1014.2 |
| 20260905100803 | 25 | 182 | 1.6 | 6.4 | 0.00 | 0.00 | 0.00 | 82 | 1014.2 |
| 20260905100603 | 25 | 182 | 1.6 | 6.4 | 0.00 | 0.00 | 0.00 | 82 | 1014.2 |
| 20260905100403 | 25 | 182 | 0.0 | 6.4 | 0.00 | 0.00 | 0.00 | 81 | 1014.1 |
| 20260905100204 | 25 | 182 | 0.0 | 6.4 | 0.00 | 0.00 | 0.00 | 82 | 1014.2 |
| 20260905100004 | 25 | 182 | 0.0 | 6.4 | 0.00 | 0.00 | 0.00 | 82 | 1014.2 |
| 20260905095803 | 25 | 0 | 0.0 | 0.0 | 0.00 | 0.00 | 0.00 | 82 | 1014.1 |
| 20260905095603 | 25 | 0 | 0.0 | 0.0 | 0.00 | 0.00 | 0.00 | 82 | 1014.1 |
| 20260905095403 | 25 | 0 | 0.0 | 0.0 | 0.00 | 0.00 | 0.00 | 82 | 1014.1 |
| 20260905095203 | 25 | 0 | 0.0 | 0.0 | 0.00 | 0.00 | 0.00 | 81 | 1014.1 |
| 20260905095004 | 25 | 0 | 0.0 | 0.0 | 0.00 | 0.00 | 0.00 | 81 | 1014.0 |
| 20260905094804 | 25 | 0 | 0.0 | 0.0 | 0.00 | 0.00 | 0.00 | 81 | 1014.0 |
| 20260905094604 | 25 | 182 | 0.0 | 3.2 | 0.00 | 0.00 | 0.00 | 82 | 1014.0 |
| 20260905094404 | 25 | 182 | 0.0 | 3.2 | 0.00 | 0.00 | 0.00 | 82 | 1014.0 |
| 20260905094203 | 25 | 182 | 0.0 | 3.2 | 0.00 | 0.00 | 0.00 | 82 | 1014.0 |
| 20260905094003 | 25 | 182 | 0.0 | 3.2 | 0.00 | 0.00 | 0.00 | 83 | 1014.0 |
| 20260905093803 | 25 | 182 | 0.0 | 3.2 | 0.00 | 0.00 | 0.00 | 83 | 1013.9 |
| 20260905093603 | 25 | 182 | 0.0 | 1.6 | 0.00 | 0.00 | 0.00 | 83 | 1014.0 |
| 20260905093204 | 25 | 182 | 0.0 | 1.6 | 0.00 | 0.00 | 0.00 | 83 | 1014.0 |
| 20260905093004 | 25 | 182 | 0.0 | 1.6 | 0.00 | 0.00 | 0.00 | 83 | 1014.0 |
| 20260905092803 | 25 | 182 | 0.0 | 1.6 | 0.00 | 0.00 | 0.00 | 84 | 1013.9 |
| 20260905092603 | 25 | 182 | 0.0 | 1.6 | 0.00 | 0.00 | 0.00 | 83 | 1013.9 |
| 20260905092403 | 25 | 182 | 0.0 | 1.6 | 0.00 | 0.00 | 0.00 | 83 | 1013.9 |
| 20260905092203 | 25 | 182 | 0.0 | 1.6 | 0.00 | 0.00 | 0.00 | 83 | 1013.9 |
| 20260905092003 | 25 | 182 | 0.0 | 8.0 | 0.00 | 0.00 | 0.00 | 82 | 1013.9 |
| 20260905091803 | 25 | 182 | 1.6 | 8.0 | 0.00 | 0.00 | 0.00 | 81 | 1013.9 |
| 20260905091604 | 26 | 182 | 1.6 | 8.0 | 0.00 | 0.00 | 0.00 | 81 | 1013.9 |
| 20260905091404 | 26 | 182 | 1.6 | 8.0 | 0.00 | 0.00 | 0.00 | 80 | 1013.9 |
| 20260905091204 | 26 | 182 | 1.6 | 8.0 | 0.00 | 0.00 | 0.00 | 80 | 1013.7 |
| 20260905091003 | 26 | 182 | 1.6 | 6.4 | 0.00 | 0.00 | 0.00 | 78 | 1013.7 |
| 20260905090803 | 26 | 182 | 0.0 | 6.4 | 0.00 | 0.00 | 0.00 | 78 | 1013.8 |
| 20260905090603 | 26 | 182 | 1.6 | 6.4 | 0.00 | 0.00 | 0.00 | 77 | 1013.8 |
| 20260905090403 | 26 | 182 | 0.0 | 4.8 | 0.00 | 0.00 | 0.00 | 76 | 1013.8 |
| 20260905090203 | 26 | 182 | 0.0 | 3.2 | 0.00 | 0.00 | 0.00 | 76 | 1013.8 |
| 20260905090004 | 26 | 182 | 0.0 | 3.2 | 0.00 | 0.00 | 0.00 | 75 | 1013.8 |
| 20260905085804 | 26 | 182 | 0.0 | 3.2 | 0.00 | 0.00 | 0.00 | 75 | 1013.9 |
| 20260905085603 | 26 | 182 | 0.0 | 1.6 | 0.00 | 0.00 | 0.00 | 75 | 1013.9 |
| 20260905085404 | 27 | 0 | 0.0 | 0.0 | 0.00 | 0.00 | 0.00 | 74 | 1013.9 |
| 20260905085203 | 27 | 0 | 0.0 | 0.0 | 0.00 | 0.00 | 0.00 | 74 | 1013.9 |
| 20260905085003 | 27 | 0 | 0.0 | 0.0 | 0.00 | 0.00 | 0.00 | 74 | 1013.9 |
| 20260905084803 | 27 | 0 | 0.0 | 0.0 | 0.00 | 0.00 | 0.00 | 74 | 1013.9 |
| 20260905084603 | 27 | 0 | 0.0 | 0.0 | 0.00 | 0.00 | 0.00 | 74 | 1013.9 |
| 20260905084403 | 27 | 0 | 0.0 | 0.0 | 0.00 | 0.00 | 0.00 | 74 | 1013.9 |
| 20260905084204 | 27 | 0 | 0.0 | 0.0 | 0.00 | 0.00 | 0.00 | 74 | 1013.7 |
| 20260905084004 | 27 | 0 | 0.0 | 0.0 | 0.00 | 0.00 | 0.00 | 74 | 1013.7 |
| 20260905083804 | 27 | 0 | 0.0 | 0.0 | 0.00 | 0.00 | 0.00 | 74 | 1013.7 |
| 20260905083603 | 27 | 0 | 0.0 | 0.0 | 0.00 | 0.00 | 0.00 | 73 | 1013.7 |
| 20260905083403 | 27 | 0 | 0.0 | 0.0 | 0.00 | 0.00 | 0.00 | 74 | 1013.7 |
| 20260905083203 | 27 | 0 | 0.0 | 0.0 | 0.00 | 0.00 | 0.00 | 74 | 1013.7 |
| 20260905083003 | 27 | 182 | 0.0 | 3.2 | 0.00 | 0.00 | 0.00 | 74 | 1013.7 |
| 20260905082803 | 27 | 182 | 0.0 | 3.2 | 0.00 | 0.00 | 0.00 | 74 | 1013.9 |
| 20260905082603 | 27 | 182 | 0.0 | 4.8 | 0.00 | 0.00 | 0.00 | 74 | 1013.9 |
| 20260905082404 | 27 | 182 | 1.6 | 6.4 | 0.00 | 0.00 | 0.00 | 74 | 1013.9 |
| 20260905082204 | 27 | 182 | 1.6 | 6.4 | 0.00 | 0.00 | 0.00 | 74 | 1013.9 |
| 20260905082004 | 27 | 182 | 1.6 | 6.4 | 0.00 | 0.00 | 0.00 | 74 | 1013.9 |
| 20260905081804 | 27 | 182 | 3.2 | 6.4 | 0.00 | 0.00 | 0.00 | 74 | 1013.9 |
| 20260905081603 | 27 | 182 | 3.2 | 6.4 | 0.00 | 0.00 | 0.00 | 74 | 1013.9 |
| 20260905081403 | 27 | 182 | 3.2 | 6.4 | 0.00 | 0.00 | 0.00 | 74 | 1013.9 |
| 20260905081203 | 27 | 182 | 1.6 | 6.4 | 0.00 | 0.00 | 0.00 | 75 | 1013.9 |
| 20260905081003 | 27 | 182 | 1.6 | 6.4 | 0.00 | 0.00 | 0.00 | 74 | 1013.9 |
| 20260905080804 | 27 | 182 | 1.6 | 6.4 | 0.00 | 0.00 | 0.00 | 75 | 1013.9 |
| 20260905080604 | 27 | 182 | 1.6 | 6.4 | 0.00 | 0.00 | 0.00 | 75 | 1013.9 |
| 20260905080404 | 27 | 182 | 1.6 | 6.4 | 0.00 | 0.00 | 0.00 | 75 | 1013.9 |
| 20260905080203 | 26 | 182 | 1.6 | 6.4 | 0.00 | 0.00 | 0.00 | 75 | 1013.9 |
| 20260905080003 | 26 | 182 | 1.6 | 3.2 | 0.00 | 0.00 | 0.00 | 76 | 1013.9 |
| 20260905075803 | 26 | 182 | 1.6 | 3.2 | 0.00 | 0.00 | 0.00 | 76 | 1013.8 |
| 20260905075603 | 26 | 182 | 1.6 | 3.2 | 0.00 | 0.00 | 0.00 | 76 | 1013.8 |
| 20260905075404 | 26 | 182 | 1.6 | 3.2 | 0.00 | 0.00 | 0.00 | 76 | 1013.8 |
| 20260905075204 | 26 | 182 | 1.6 | 3.2 | 0.00 | 0.00 | 0.00 | 76 | 1013.8 |
| 20260905075003 | 26 | 182 | 0.0 | 3.2 | 0.00 | 0.00 | 0.00 | 76 | 1013.8 |
| 20260905074803 | 27 | 182 | 0.0 | 3.2 | 0.00 | 0.00 | 0.00 | 76 | 1013.8 |
| 20260905074603 | 27 | 0 | 0.0 | 0.0 | 0.00 | 0.00 | 0.00 | 76 | 1013.9 |
| 20260905074403 | 27 | 0 | 0.0 | 0.0 | 0.00 | 0.00 | 0.00 | 76 | 1013.9 |
| 20260905074203 | 27 | 0 | 0.0 | 0.0 | 0.00 | 0.00 | 0.00 | 76 | 1013.8 |
| 20260905074003 | 27 | 0 | 0.0 | 0.0 | 0.00 | 0.00 | 0.00 | 76 | 1013.8 |
| 20260905073804 | 27 | 0 | 0.0 | 0.0 | 0.00 | 0.00 | 0.00 | 76 | 1013.8 |
| 20260905073604 | 27 | 0 | 0.0 | 0.0 | 0.00 | 0.00 | 0.00 | 76 | 1013.8 |
| 20260905073403 | 27 | 0 | 0.0 | 0.0 | 0.00 | 0.00 | 0.00 | 76 | 1013.8 |
| 20260905073203 | 27 | 0 | 0.0 | 0.0 | 0.00 | 0.00 | 0.00 | 75 | 1013.8 |
| 20260905073003 | 27 | 0 | 0.0 | 0.0 | 0.00 | 0.00 | 0.00 | 75 | 1013.8 |
| 20260905072803 | 27 | 0 | 0.0 | 0.0 | 0.00 | 0.00 | 0.00 | 75 | 1014.0 |
| 20260905072603 | 27 | 0 | 0.0 | 0.0 | 0.00 | 0.00 | 0.00 | 75 | 1014.0 |
| 20260905072403 | 27 | 0 | 0.0 | 0.0 | 0.00 | 0.00 | 0.00 | 75 | 1014.0 |
| 20260905072204 | 27 | 0 | 0.0 | 0.0 | 0.00 | 0.00 | 0.00 | 75 | 1014.0 |
| 20260905072004 | 27 | 0 | 0.0 | 0.0 | 0.00 | 0.00 | 0.00 | 75 | 1014.0 |
| 20260905071804 | 27 | 0 | 0.0 | 0.0 | 0.00 | 0.00 | 0.00 | 75 | 1014.0 |
| 20260905071603 | 27 | 0 | 0.0 | 0.0 | 0.00 | 0.00 | 0.00 | 75 | 1014.0 |
| 20260905071403 | 27 | 0 | 0.0 | 0.0 | 0.00 | 0.00 | 0.00 | 75 | 1014.0 |
| 20260905071203 | 27 | 0 | 0.0 | 0.0 | 0.00 | 0.00 | 0.00 | 75 | 1013.9 |
| 20260905071003 | 27 | 0 | 0.0 | 0.0 | 0.00 | 0.00 | 0.00 | 75 | 1013.9 |
| 20260905070803 | 27 | 0 | 0.0 | 0.0 | 0.00 | 0.00 | 0.00 | 75 | 1013.9 |
| 20260905070604 | 27 | 0 | 0.0 | 0.0 | 0.00 | 0.00 | 0.00 | 75 | 1013.9 |
| 20260905070404 | 27 | 0 | 0.0 | 0.0 | 0.00 | 0.00 | 0.00 | 75 | 1013.9 |
| 20260905070204 | 27 | 0 | 0.0 | 0.0 | 0.00 | 0.00 | 0.00 | 75 | 1013.9 |
| 20260905070004 | 27 | 0 | 0.0 | 0.0 | 0.00 | 0.00 | 0.00 | 75 | 1013.9 |
| 20260905065803 | 27 | 0 | 0.0 | 0.0 | 0.00 | 0.00 | 0.00 | 75 | 1014.0 |
| 20260905065603 | 27 | 0 | 0.0 | 0.0 | 0.00 | 0.00 | 0.00 | 75 | 1014.1 |
| 20260905065404 | 27 | 0 | 0.0 | 0.0 | 0.00 | 0.00 | 0.00 | 75 | 1014.1 |
| 20260905065204 | 27 | 0 | 0.0 | 0.0 | 0.00 | 0.00 | 0.00 | 75 | 1014.1 |
| 20260905065004 | 27 | 0 | 0.0 | 0.0 | 0.00 | 0.00 | 0.00 | 75 | 1014.0 |
| 20260905064803 | 27 | 0 | 0.0 | 0.0 | 0.00 | 0.00 | 0.00 | 74 | 1014.0 |
| 20260905064603 | 27 | 0 | 0.0 | 0.0 | 0.00 | 0.00 | 0.00 | 74 | 1014.0 |
| 20260905064403 | 27 | 0 | 0.0 | 0.0 | 0.00 | 0.00 | 0.00 | 74 | 1014.0 |
| 20260905064203 | 27 | 0 | 0.0 | 0.0 | 0.00 | 0.00 | 0.00 | 74 | 1014.5 |
| 20260905064003 | 27 | 0 | 0.0 | 0.0 | 0.00 | 0.00 | 0.00 | 74 | 1014.5 |
| 20260905063803 | 27 | 0 | 0.0 | 0.0 | 0.00 | 0.00 | 0.00 | 74 | 1014.5 |
| 20260905063604 | 27 | 0 | 0.0 | 0.0 | 0.00 | 0.00 | 0.00 | 74 | 1014.5 |
| 20260905063404 | 27 | 0 | 0.0 | 0.0 | 0.00 | 0.00 | 0.00 | 74 | 1014.5 |
| 20260905063203 | 27 | 0 | 0.0 | 0.0 | 0.00 | 0.00 | 0.00 | 74 | 1014.5 |
| 20260905063003 | 27 | 0 | 0.0 | 0.0 | 0.00 | 0.00 | 0.00 | 74 | 1014.5 |
| 20260905062803 | 27 | 0 | 0.0 | 0.0 | 0.00 | 0.00 | 0.00 | 74 | 1014.2 |
| 20260905062603 | 27 | 0 | 0.0 | 0.0 | 0.00 | 0.00 | 0.00 | 73 | 1014.2 |
| 20260905062403 | 27 | 0 | 0.0 | 0.0 | 0.00 | 0.00 | 0.00 | 74 | 1014.2 |
| 20260905062203 | 27 | 0 | 0.0 | 0.0 | 0.00 | 0.00 | 0.00 | 74 | 1014.4 |
| 20260905062004 | 27 | 0 | 0.0 | 0.0 | 0.00 | 0.00 | 0.00 | 74 | 1014.4 |
| 20260905061804 | 27 | 0 | 0.0 | 0.0 | 0.00 | 0.00 | 0.00 | 74 | 1014.4 |
| 20260905061603 | 27 | 0 | 0.0 | 0.0 | 0.00 | 0.00 | 0.00 | 74 | 1014.4 |
| 20260905061403 | 27 | 0 | 0.0 | 0.0 | 0.00 | 0.00 | 0.00 | 74 | 1014.4 |
| 20260905061203 | 27 | 0 | 0.0 | 0.0 | 0.00 | 0.00 | 0.00 | 74 | 1014.5 |
| 20260905061003 | 27 | 0 | 0.0 | 0.0 | 0.00 | 0.00 | 0.00 | 74 | 1014.5 |
| 20260905060803 | 27 | 0 | 0.0 | 0.0 | 0.00 | 0.00 | 0.00 | 74 | 1014.5 |
| 20260905060603 | 27 | 0 | 0.0 | 0.0 | 0.00 | 0.00 | 0.00 | 74 | 1014.5 |
| 20260905060403 | 27 | 0 | 0.0 | 0.0 | 0.00 | 0.00 | 0.00 | 73 | 1014.5 |
| 20260905060204 | 27 | 0 | 0.0 | 0.0 | 0.00 | 0.00 | 0.00 | 73 | 1014.5 |
| 20260905060004 | 27 | 0 | 0.0 | 0.0 | 0.00 | 0.00 | 0.00 | 73 | 1014.5 |
| 20260905055804 | 27 | 0 | 0.0 | 0.0 | 0.00 | 0.00 | 0.00 | 73 | 1014.6 |
| 20260905055603 | 27 | 0 | 0.0 | 0.0 | 0.00 | 0.00 | 0.00 | 73 | 1014.5 |
| 20260905055403 | 27 | 0 | 0.0 | 0.0 | 0.00 | 0.00 | 0.00 | 73 | 1014.5 |
| 20260905055203 | 27 | 0 | 0.0 | 0.0 | 0.00 | 0.00 | 0.00 | 73 | 1014.5 |
| 20260905055003 | 27 | 0 | 0.0 | 0.0 | 0.00 | 0.00 | 0.00 | 72 | 1014.5 |
| 20260905054803 | 27 | 0 | 0.0 | 0.0 | 0.00 | 0.00 | 0.00 | 72 | 1014.5 |
| 20260905054604 | 27 | 0 | 0.0 | 0.0 | 0.00 | 0.00 | 0.00 | 72 | 1014.5 |
| 20260905054404 | 27 | 0 | 0.0 | 0.0 | 0.00 | 0.00 | 0.00 | 72 | 1014.4 |
| 20260905054204 | 27 | 0 | 0.0 | 0.0 | 0.00 | 0.00 | 0.00 | 70 | 1014.5 |
| 20260905054004 | 27 | 0 | 0.0 | 0.0 | 0.00 | 0.00 | 0.00 | 70 | 1014.5 |
| 20260905053803 | 27 | 0 | 0.0 | 0.0 | 0.00 | 0.00 | 0.00 | 70 | 1014.5 |
| 20260905053603 | 27 | 0 | 0.0 | 0.0 | 0.00 | 0.00 | 0.00 | 69 | 1014.5 |
| 20260905053403 | 27 | 0 | 0.0 | 0.0 | 0.00 | 0.00 | 0.00 | 69 | 1014.5 |
| 20260905053203 | 27 | 0 | 0.0 | 0.0 | 0.00 | 0.00 | 0.00 | 69 | 1014.5 |
| 20260905053004 | 27 | 0 | 0.0 | 0.0 | 0.00 | 0.00 | 0.00 | 69 | 1014.5 |